M I D A S
Marine Information and Data Acquisition System
Tripno 1726 of the Zeeleeuw from 2009-06-29 09:14:50 to 2009-06-30 12:11:42
Back to CruiseResearch ActivitiesStationsMapUnderway DataData graphs

EquipmentUnitsComment
TimeDGPSUTC
LatitudeDGPSDM.mWGS84
LongitudeDGPSDM.mWGS84
TemperatureSBE03/SBE38deg celciusITS90
ConductivitySBE21S/mITS90
SalinitySBE21 Practical Salinity Units
ChlorophylAChelsea fluorimeterg/lCalibrated in Aceton
Missing or incorrect values are displayed as -999
Sea surface data collected by the RV Zeeleeuw from 2009-06-29 06:19:02 to 2009-06-30 12:38:59
                                                                                    Next 1000 lines
Time Latitude Longitude Temperature Conductivity Salinity ChlorophylA
2009-06-29 06:19:13 51°13.662 2°55.96 21.7114 0.024404 0.119282 1.332643
2009-06-29 06:19:18 51°13.662 2°55.959 21.7009 0.024302 0.118792 1.332643
2009-06-29 06:19:22 51°13.663 2°55.959 21.7151 0.024404 0.119284 1.332643
2009-06-29 06:19:28 51°13.663 2°55.959 21.7103 0.024302 0.118794 1.332643
2009-06-29 06:19:33 51°13.663 2°55.959 21.7173 0.024302 0.118795 1.332643
2009-06-29 06:19:38 51°13.663 2°55.959 21.7143 0.024302 0.118797 1.297819
2009-06-29 06:19:42 51°13.663 2°55.959 21.7174 0.024302 0.118797 1.297819
2009-06-29 06:19:48 51°13.663 2°55.959 21.7177 0.024302 0.118797 1.332643
2009-06-29 06:19:53 51°13.663 2°55.96 21.7185 0.024302 0.1188 1.332643
2009-06-29 06:19:58 51°13.663 2°55.96 21.7191 0.024302 0.1188 1.297819
2009-06-29 06:20:03 51°13.663 2°55.96 21.7193 0.024302 0.118802 1.332643
2009-06-29 06:20:08 51°13.663 2°55.959 21.7192 0.024302 0.118804 1.297819
2009-06-29 06:20:13 51°13.662 2°55.959 21.7199 0.024302 0.118804 1.297819
2009-06-29 06:20:17 51°13.662 2°55.959 21.7202 0.024302 0.118805 1.332643
2009-06-29 06:20:23 51°13.662 2°55.959 21.722 0.024302 0.118807 1.297819
2009-06-29 06:20:28 51°13.662 2°55.959 21.7215 0.024302 0.118807 1.332643
2009-06-29 06:20:33 51°13.662 2°55.959 21.7222 0.024302 0.118808 1.332643
2009-06-29 06:20:38 51°13.662 2°55.959 21.7218 0.024302 0.118808 1.332643
2009-06-29 06:20:42 51°13.662 2°55.959 21.723 0.024302 0.11881 1.297819
2009-06-29 06:20:48 51°13.662 2°55.959 21.7225 0.024199 0.11832 1.332643
2009-06-29 06:20:53 51°13.662 2°55.959 21.7244 0.024302 0.118813 1.332643
2009-06-29 06:20:58 51°13.662 2°55.959 21.724 0.024302 0.118813 1.297819
2009-06-29 06:21:02 51°13.662 2°55.959 21.724 0.024199 0.118324 1.332643
2009-06-29 06:21:08 51°13.662 2°55.959 21.7244 0.024302 0.118817 1.332643
2009-06-29 06:21:13 51°13.662 2°55.959 21.725 0.024302 0.118817 1.332643
2009-06-29 06:21:18 51°13.662 2°55.959 21.7237 0.024302 0.118818 1.297819
2009-06-29 06:21:22 51°13.662 2°55.959 21.7243 0.024302 0.11882 1.297819
2009-06-29 06:21:28 51°13.662 2°55.959 21.7235 0.024302 0.11882 1.332643
2009-06-29 06:21:33 51°13.662 2°55.958 21.724 0.024199 0.11833 1.332643
2009-06-29 06:21:38 51°13.662 2°55.959 21.724 0.024302 0.118823 1.332643
2009-06-29 06:21:42 51°13.662 2°55.959 21.7242 0.024302 0.118823 1.332643
2009-06-29 06:21:48 51°13.663 2°55.959 21.7238 0.024199 0.118332 1.297819
2009-06-29 06:21:53 51°13.663 2°55.959 21.7243 0.024302 0.118825 1.297819
2009-06-29 06:21:58 51°13.664 2°55.959 21.7241 0.024302 0.118826 1.297819
2009-06-29 06:22:03 51°13.663 2°55.959 21.7248 0.024302 0.118826 1.297819
2009-06-29 06:22:08 51°13.662 2°55.959 21.725 0.024302 0.118828 1.297819
2009-06-29 06:22:13 51°13.662 2°55.958 21.7248 0.024302 0.118828 1.297819
2009-06-29 06:22:17 51°13.662 2°55.958 21.7253 0.024302 0.11883 1.297819
2009-06-29 06:22:23 51°13.662 2°55.958 21.7256 0.024302 0.118831 1.332643
2009-06-29 06:22:28 51°13.662 2°55.958 21.7254 0.024302 0.118833 1.332643
2009-06-29 06:22:33 51°13.662 2°55.958 21.726 0.024302 0.118833 1.332643
2009-06-29 06:22:38 51°13.662 2°55.958 21.7264 0.024302 0.118833 1.332643
2009-06-29 06:22:42 51°13.662 2°55.958 21.7263 0.024302 0.118835 1.332643
2009-06-29 06:22:48 51°13.662 2°55.958 21.727 0.024302 0.118836 1.297819
2009-06-29 06:22:53 51°13.662 2°55.958 21.727 0.024302 0.118836 1.332643
2009-06-29 06:22:58 51°13.663 2°55.959 21.7266 0.024302 0.11884 1.332643
2009-06-29 06:23:02 51°13.663 2°55.959 21.727 0.024302 0.11884 1.297819
2009-06-29 06:23:08 51°13.662 2°55.958 21.7266 0.024302 0.118841 1.297819
2009-06-29 06:23:13 51°13.662 2°55.958 21.7267 0.024302 0.118841 1.297819
2009-06-29 06:23:18 51°13.662 2°55.958 21.7267 0.024302 0.118843 1.332643
2009-06-29 06:23:22 51°13.662 2°55.958 21.7264 0.024302 0.118843 1.297819
2009-06-29 06:23:28 51°13.662 2°55.958 21.7274 0.024302 0.118844 1.297819
2009-06-29 06:23:33 51°13.663 2°55.958 21.7287 0.024302 0.118846 1.297819
2009-06-29 06:23:38 51°13.663 2°55.959 21.7287 0.024302 0.118848 1.297819
2009-06-29 06:23:42 51°13.664 2°55.959 21.7289 0.024302 0.118848 1.297819
2009-06-29 06:23:48 51°13.664 2°55.959 21.7292 0.024302 0.118849 1.297819
2009-06-29 06:23:53 51°13.664 2°55.959 21.73 0.024302 0.118849 1.297819
2009-06-29 06:23:58 51°13.664 2°55.959 21.731 0.024302 0.118851 1.297819
2009-06-29 06:24:03 51°13.663 2°55.959 21.7317 0.024302 0.118851 1.297819
2009-06-29 06:24:08 51°13.663 2°55.959 21.7314 0.024302 0.118851 1.297819
2009-06-29 06:24:13 51°13.663 2°55.958 21.7308 0.024302 0.118853 1.332643
2009-06-29 06:24:18 51°13.663 2°55.958 21.7309 0.024302 0.118854 1.332643
2009-06-29 06:24:23 51°13.662 2°55.958 21.731 0.024302 0.118856 1.332643
2009-06-29 06:24:28 51°13.662 2°55.958 21.731 0.024302 0.118858 1.297819
2009-06-29 06:24:33 51°13.662 2°55.958 21.7304 0.024302 0.118858 1.297819
2009-06-29 06:24:38 51°13.662 2°55.958 21.7299 0.024302 0.118859 1.297819
2009-06-29 06:24:42 51°13.662 2°55.958 21.7281 0.024302 0.118859 1.297819
2009-06-29 06:24:48 51°13.662 2°55.958 21.7268 0.024302 0.118861 1.297819
2009-06-29 06:24:53 51°13.662 2°55.958 21.7266 0.024302 0.118861 1.297819
2009-06-29 06:24:58 51°13.662 2°55.958 21.7278 0.024302 0.118862 1.297819
2009-06-29 06:25:02 51°13.662 2°55.958 21.7281 0.024302 0.118864 1.332643
2009-06-29 06:25:08 51°13.662 2°55.958 21.7276 0.024302 0.118864 1.297819
2009-06-29 06:25:13 51°13.662 2°55.958 21.7282 0.024302 0.118864 1.297819
2009-06-29 06:25:18 51°13.662 2°55.958 21.7281 0.024302 0.118864 1.297819
2009-06-29 06:25:22 51°13.662 2°55.958 21.7277 0.024302 0.118867 1.297819
2009-06-29 06:25:28 51°13.662 2°55.958 21.7273 0.024302 0.118869 1.297819
2009-06-29 06:25:33 51°13.662 2°55.958 21.7275 0.024302 0.118869 1.297819
2009-06-29 06:25:38 51°13.662 2°55.958 21.7284 0.024302 0.118871 1.297819
2009-06-29 06:25:42 51°13.662 2°55.959 21.7304 0.024302 0.118871 1.297819
2009-06-29 06:25:48 51°13.662 2°55.959 21.7304 0.024302 0.118872 1.297819
2009-06-29 06:25:53 51°13.663 2°55.959 21.7314 0.024302 0.118872 1.297819
2009-06-29 06:25:58 51°13.663 2°55.96 21.7312 0.024302 0.118874 1.297819
2009-06-29 06:26:03 51°13.664 2°55.96 21.7317 0.024302 0.118875 1.297819
2009-06-29 06:26:08 51°13.663 2°55.959 21.7309 0.024302 0.118875 1.297819
2009-06-29 06:26:13 51°13.662 2°55.959 21.7321 0.024302 0.118875 1.297819
2009-06-29 06:26:18 51°13.662 2°55.959 21.7331 0.024302 0.118879 1.332643
2009-06-29 06:26:23 51°13.662 2°55.959 21.7339 0.024302 0.118879 1.297819
2009-06-29 06:26:28 51°13.661 2°55.959 21.7345 0.024302 0.11888 1.332643
2009-06-29 06:26:33 51°13.661 2°55.959 21.7354 0.024302 0.118882 1.297819
2009-06-29 06:26:38 51°13.661 2°55.959 21.7357 0.024302 0.118884 1.297819
2009-06-29 06:26:42 51°13.662 2°55.959 21.7368 0.024302 0.118884 1.297819
2009-06-29 06:26:48 51°13.661 2°55.959 21.7372 0.024302 0.118884 1.297819
2009-06-29 06:26:53 51°13.661 2°55.959 21.7379 0.024302 0.118885 1.297819
2009-06-29 06:26:58 51°13.661 2°55.959 21.7391 0.024302 0.118887 1.297819
2009-06-29 06:27:02 51°13.661 2°55.959 21.7399 0.024302 0.118889 1.297819
2009-06-29 06:27:08 51°13.661 2°55.959 21.741 0.024302 0.118889 1.297819
2009-06-29 06:27:13 51°13.662 2°55.959 21.7409 0.024302 0.118889 1.297819
2009-06-29 06:27:18 51°13.663 2°55.96 21.7403 0.024302 0.11889 1.297819
2009-06-29 06:27:22 51°13.664 2°55.961 21.7411 0.024302 0.11889 1.297819
2009-06-29 06:27:28 51°13.665 2°55.961 21.7415 0.024302 0.118893 1.297819
2009-06-29 06:27:33 51°13.665 2°55.961 21.7417 0.024302 0.118893 1.297819
2009-06-29 06:27:38 51°13.666 2°55.962 21.742 0.024302 0.118893 1.297819
2009-06-29 06:27:42 51°13.666 2°55.962 21.7429 0.024302 0.118895 1.297819
2009-06-29 06:27:48 51°13.664 2°55.961 21.7426 0.024302 0.118897 1.297819
2009-06-29 06:27:53 51°13.662 2°55.959 21.7429 0.024199 0.118407 1.297819
2009-06-29 06:27:58 51°13.661 2°55.958 21.7432 0.024302 0.118898 1.297819
2009-06-29 06:28:03 51°13.662 2°55.958 21.7436 0.024302 0.1189 1.297819
2009-06-29 06:28:08 51°13.662 2°55.959 21.744 0.024302 0.1189 1.297819
2009-06-29 06:28:13 51°13.663 2°55.959 21.744 0.024302 0.118902 1.297819
2009-06-29 06:28:18 51°13.663 2°55.959 21.7446 0.024302 0.118903 1.297819
2009-06-29 06:28:22 51°13.662 2°55.959 21.7444 0.024302 0.118903 1.297819
2009-06-29 06:28:28 51°13.663 2°55.959 21.7455 0.024302 0.118905 1.297819
2009-06-29 06:28:33 51°13.664 2°55.96 21.746 0.024302 0.118907 1.297819
2009-06-29 06:28:38 51°13.664 2°55.96 21.7461 0.024302 0.118908 1.297819
2009-06-29 06:28:42 51°13.665 2°55.96 21.7464 0.024302 0.118908 1.297819
2009-06-29 06:28:48 51°13.665 2°55.96 21.7454 0.024302 0.118908 1.297819
2009-06-29 06:28:53 51°13.663 2°55.959 21.7441 0.024199 0.118418 1.297819
2009-06-29 06:28:58 51°13.662 2°55.958 21.7443 0.024302 0.118911 1.297819
2009-06-29 06:29:02 51°13.661 2°55.958 21.7452 0.024302 0.118913 1.297819
2009-06-29 06:29:08 51°13.661 2°55.958 21.7457 0.024302 0.118913 1.297819
2009-06-29 06:29:13 51°13.661 2°55.958 21.746 0.024302 0.118913 1.297819
2009-06-29 06:29:18 51°13.661 2°55.958 21.7464 0.024302 0.118915 1.297819
2009-06-29 06:29:23 51°13.661 2°55.958 21.7464 0.024302 0.118916 1.297819
2009-06-29 06:29:28 51°13.661 2°55.958 21.7458 0.024302 0.118918 1.297819
2009-06-29 06:29:33 51°13.662 2°55.958 21.7458 0.024302 0.118918 1.297819
2009-06-29 06:29:38 51°13.662 2°55.957 21.7461 0.024302 0.118918 1.297819
2009-06-29 06:29:43 51°13.662 2°55.958 21.7464 0.024302 0.118921 1.297819
2009-06-29 06:29:48 51°13.662 2°55.958 21.747 0.024302 0.118921 1.297819
2009-06-29 06:29:53 51°13.662 2°55.958 21.7452 0.024302 0.118923 1.297819
2009-06-29 06:29:58 51°13.662 2°55.958 21.7464 0.024302 0.118923 1.297819
2009-06-29 06:30:03 51°13.662 2°55.958 21.747 0.024302 0.118925 1.297819
2009-06-29 06:30:08 51°13.662 2°55.958 21.7479 0.024302 0.118926 1.297819
2009-06-29 06:30:13 51°13.662 2°55.958 21.7481 0.024302 0.118926 1.297819
2009-06-29 06:30:18 51°13.662 2°55.958 21.7485 0.024302 0.118928 1.297819
2009-06-29 06:30:22 51°13.662 2°55.958 21.7494 0.024302 0.11893 1.297819
2009-06-29 06:30:28 51°13.662 2°55.958 21.7501 0.024302 0.118931 1.297819
2009-06-29 06:30:33 51°13.662 2°55.958 21.7516 0.024302 0.118931 1.297819
2009-06-29 06:30:38 51°13.662 2°55.958 21.7506 0.024302 0.118933 1.297819
2009-06-29 06:30:42 51°13.662 2°55.958 21.751 0.024302 0.118933 1.297819
2009-06-29 06:30:48 51°13.662 2°55.958 21.752 0.024302 0.118934 1.297819
2009-06-29 06:30:53 51°13.662 2°55.958 21.7521 0.024302 0.118936 1.297819
2009-06-29 06:30:58 51°13.663 2°55.959 21.7532 0.024302 0.118938 1.297819
2009-06-29 06:31:02 51°13.663 2°55.959 21.7537 0.024302 0.118938 1.297819
2009-06-29 06:31:08 51°13.662 2°55.958 21.7541 0.024302 0.118938 1.297819
2009-06-29 06:31:13 51°13.662 2°55.958 21.7544 0.024302 0.118939 1.297819
2009-06-29 06:31:18 51°13.662 2°55.958 21.7542 0.024302 0.118941 1.297819
2009-06-29 06:31:23 51°13.662 2°55.958 21.7554 0.024302 0.118943 1.297819
2009-06-29 06:31:28 51°13.662 2°55.958 21.7563 0.024302 0.118944 1.297819
2009-06-29 06:31:33 51°13.662 2°55.958 21.7567 0.024302 0.118944 1.297819
2009-06-29 06:31:38 51°13.662 2°55.958 21.7571 0.024302 0.118944 1.297819
2009-06-29 06:31:43 51°13.662 2°55.958 21.7578 0.024302 0.118946 1.297819
2009-06-29 06:31:48 51°13.661 2°55.958 21.7581 0.024302 0.118948 1.297819
2009-06-29 06:31:53 51°13.661 2°55.958 21.7588 0.024302 0.118949 1.297819
2009-06-29 06:31:58 51°13.661 2°55.958 21.7589 0.024302 0.118949 1.297819
2009-06-29 06:32:03 51°13.661 2°55.958 21.7597 0.024302 0.118951 1.297819
2009-06-29 06:32:08 51°13.661 2°55.958 21.7595 0.024302 0.118952 1.297819
2009-06-29 06:32:13 51°13.661 2°55.958 21.7603 0.024302 0.118952 1.297819
2009-06-29 06:32:18 51°13.66 2°55.958 21.7608 0.024302 0.118954 1.297819
2009-06-29 06:32:22 51°13.66 2°55.958 21.7616 0.024302 0.118956 1.297819
2009-06-29 06:32:28 51°13.66 2°55.958 21.7618 0.024302 0.118956 1.297819
2009-06-29 06:32:33 51°13.66 2°55.958 21.7622 0.024302 0.118957 1.297819
2009-06-29 06:32:38 51°13.66 2°55.958 21.7622 0.024302 0.118959 1.297819
2009-06-29 06:32:42 51°13.661 2°55.958 21.7632 0.024302 0.118959 1.297819
2009-06-29 06:32:48 51°13.661 2°55.958 21.7639 0.024302 0.118961 1.297819
2009-06-29 06:32:53 51°13.661 2°55.958 21.7639 0.024302 0.118961 1.297819
2009-06-29 06:32:58 51°13.661 2°55.958 21.7655 0.024302 0.118962 1.297819
2009-06-29 06:33:02 51°13.661 2°55.958 21.766 0.024302 0.118964 1.297819
2009-06-29 06:33:08 51°13.661 2°55.958 21.7668 0.024302 0.118964 1.297819
2009-06-29 06:33:13 51°13.661 2°55.958 21.767 0.024302 0.118964 1.297819
2009-06-29 06:33:18 51°13.661 2°55.958 21.7673 0.024302 0.118966 1.297819
2009-06-29 06:33:23 51°13.661 2°55.958 21.7649 0.024302 0.118967 1.297819
2009-06-29 06:33:28 51°13.661 2°55.958 21.7648 0.024302 0.118967 1.297819
2009-06-29 06:33:33 51°13.661 2°55.959 21.762 0.024302 0.11897 1.297819
2009-06-29 06:33:38 51°13.661 2°55.959 21.7631 0.024302 0.11897 1.297819
2009-06-29 06:33:43 51°13.661 2°55.959 21.7632 0.024302 0.11897 1.297819
2009-06-29 06:33:48 51°13.661 2°55.959 21.7632 0.024302 0.118972 1.297819
2009-06-29 06:33:53 51°13.661 2°55.959 21.7629 0.024302 0.118974 1.297819
2009-06-29 06:33:58 51°13.661 2°55.959 21.7634 0.024302 0.118975 1.297819
2009-06-29 06:34:02 51°13.661 2°55.959 21.7632 0.024302 0.118975 1.297819
2009-06-29 06:34:08 51°13.661 2°55.958 21.7623 0.024302 0.118977 1.297819
2009-06-29 06:34:13 51°13.661 2°55.959 21.7632 0.024302 0.118977 1.297819
2009-06-29 06:34:18 51°13.662 2°55.959 21.7639 0.024302 0.118979 1.262995
2009-06-29 06:34:22 51°13.662 2°55.959 21.7645 0.024302 0.11898 1.297819
2009-06-29 06:34:28 51°13.662 2°55.959 21.7653 0.024302 0.118979 1.297819
2009-06-29 06:34:33 51°13.662 2°55.959 21.766 0.024302 0.118982 1.297819
2009-06-29 06:34:38 51°13.663 2°55.959 21.7658 0.024302 0.118982 1.297819
2009-06-29 06:34:42 51°13.663 2°55.96 21.7667 0.024302 0.118984 1.297819
2009-06-29 06:34:48 51°13.664 2°55.96 21.767 0.024302 0.118985 1.262995
2009-06-29 06:34:53 51°13.664 2°55.96 21.7666 0.024302 0.118985 1.297819
2009-06-29 06:34:58 51°13.663 2°55.96 21.7666 0.024302 0.118987 1.297819
2009-06-29 06:35:02 51°13.662 2°55.959 21.7668 0.024302 0.118989 1.262995
2009-06-29 06:35:08 51°13.661 2°55.959 21.7673 0.024302 0.11899 1.297819
2009-06-29 06:35:13 51°13.661 2°55.958 21.7679 0.024302 0.11899 1.297819
2009-06-29 06:35:18 51°13.661 2°55.958 21.7686 0.024302 0.118992 1.297819
2009-06-29 06:35:23 51°13.661 2°55.959 21.7686 0.024302 0.118993 1.297819
2009-06-29 06:35:28 51°13.661 2°55.959 21.7693 0.024302 0.118993 1.297819
2009-06-29 06:35:33 51°13.662 2°55.959 21.7693 0.024302 0.118995 1.297819
2009-06-29 06:35:38 51°13.662 2°55.959 21.7693 0.024302 0.118997 1.297819
2009-06-29 06:35:43 51°13.662 2°55.959 21.7704 0.024302 0.118997 1.297819
2009-06-29 06:35:48 51°13.662 2°55.959 21.771 0.024302 0.118998 1.262995
2009-06-29 06:35:53 51°13.662 2°55.959 21.7722 0.024302 0.118998 1.297819
2009-06-29 06:35:58 51°13.662 2°55.959 21.7727 0.024302 0.119002 1.297819
2009-06-29 06:36:02 51°13.662 2°55.959 21.7738 0.024302 0.119002 1.297819
2009-06-29 06:36:08 51°13.662 2°55.958 21.7741 0.024302 0.119003 1.262995
2009-06-29 06:36:13 51°13.662 2°55.958 21.7745 0.024302 0.119003 1.262995
2009-06-29 06:36:18 51°13.662 2°55.958 21.7755 0.024302 0.119005 1.297819
2009-06-29 06:36:22 51°13.662 2°55.958 21.7764 0.024302 0.119007 1.297819
2009-06-29 06:36:28 51°13.661 2°55.958 21.7762 0.024302 0.119008 1.297819
2009-06-29 06:36:33 51°13.661 2°55.958 21.7771 0.024302 0.119008 1.297819
2009-06-29 06:36:38 51°13.661 2°55.958 21.7769 0.024302 0.11901 1.297819
2009-06-29 06:36:42 51°13.661 2°55.958 21.7766 0.024302 0.11901 1.297819
2009-06-29 06:36:48 51°13.661 2°55.958 21.7759 0.024302 0.119011 1.262995
2009-06-29 06:36:53 51°13.661 2°55.958 21.7763 0.024302 0.119013 1.262995
2009-06-29 06:36:58 51°13.661 2°55.957 21.7772 0.024302 0.119015 1.297819
2009-06-29 06:37:02 51°13.661 2°55.957 21.7781 0.024302 0.119016 1.297819
2009-06-29 06:37:08 51°13.661 2°55.957 21.7789 0.024302 0.119016 1.297819
2009-06-29 06:37:13 51°13.661 2°55.957 21.7805 0.024302 0.119016 1.297819
2009-06-29 06:37:18 51°13.661 2°55.957 21.7813 0.024302 0.119018 1.297819
2009-06-29 06:37:22 51°13.661 2°55.957 21.7819 0.024302 0.119018 1.297819
2009-06-29 06:37:28 51°13.661 2°55.957 21.7823 0.024302 0.11902 1.297819
2009-06-29 06:37:33 51°13.662 2°55.958 21.7826 0.024302 0.119023 1.297819
2009-06-29 06:37:38 51°13.663 2°55.959 21.783 0.024302 0.119023 1.297819
2009-06-29 06:37:43 51°13.664 2°55.959 21.7834 0.024302 0.119023 1.297819
2009-06-29 06:37:48 51°13.665 2°55.96 21.7843 0.024302 0.119025 1.297819
2009-06-29 06:37:53 51°13.666 2°55.961 21.7849 0.024302 0.119026 1.297819
2009-06-29 06:37:58 51°13.666 2°55.961 21.7853 0.024302 0.119026 1.297819
2009-06-29 06:38:02 51°13.666 2°55.961 21.7865 0.024302 0.119028 1.262995
2009-06-29 06:38:08 51°13.665 2°55.96 21.7868 0.024302 0.11903 1.297819
2009-06-29 06:38:13 51°13.665 2°55.96 21.7877 0.024302 0.11903 1.297819
2009-06-29 06:38:18 51°13.664 2°55.959 21.7887 0.024302 0.119031 1.262995
2009-06-29 06:38:22 51°13.662 2°55.958 21.789 0.024302 0.119033 1.297819
2009-06-29 06:38:28 51°13.66 2°55.957 21.7896 0.024302 0.119033 1.297819
2009-06-29 06:38:33 51°13.66 2°55.957 21.7905 0.024302 0.119034 1.297819
2009-06-29 06:38:38 51°13.66 2°55.957 21.791 0.024302 0.119034 1.297819
2009-06-29 06:38:42 51°13.66 2°55.957 21.7912 0.024302 0.119036 1.262995
2009-06-29 06:38:48 51°13.66 2°55.957 21.7916 0.024302 0.119038 1.262995
2009-06-29 06:38:53 51°13.661 2°55.957 21.7922 0.024302 0.119038 1.297819
2009-06-29 06:38:58 51°13.662 2°55.958 21.7917 0.024302 0.119039 1.297819
2009-06-29 06:39:02 51°13.662 2°55.959 21.7915 0.024302 0.119041 1.297819
2009-06-29 06:39:08 51°13.663 2°55.959 21.7916 0.024302 0.119041 1.297819
2009-06-29 06:39:13 51°13.663 2°55.959 21.7904 0.024302 0.119041 1.297819
2009-06-29 06:39:18 51°13.663 2°55.959 21.7908 0.024302 0.119043 1.297819
2009-06-29 06:39:22 51°13.663 2°55.959 21.7899 0.024302 0.119044 1.297819
2009-06-29 06:39:28 51°13.663 2°55.959 21.7909 0.024302 0.119046 1.297819
2009-06-29 06:39:33 51°13.661 2°55.958 21.7916 0.024302 0.119048 1.297819
2009-06-29 06:39:38 51°13.661 2°55.958 21.7915 0.024302 0.119049 1.262995
2009-06-29 06:39:43 51°13.661 2°55.958 21.7925 0.024302 0.119049 1.262995
2009-06-29 06:39:48 51°13.661 2°55.958 21.7924 0.024302 0.119049 1.262995
2009-06-29 06:39:53 51°13.661 2°55.958 21.7924 0.024302 0.119051 1.297819
2009-06-29 06:39:58 51°13.661 2°55.958 21.7935 0.024302 0.119051 1.262995
2009-06-29 06:40:02 51°13.661 2°55.958 21.7939 0.024302 0.119053 1.297819
2009-06-29 06:40:08 51°13.661 2°55.958 21.7941 0.024302 0.119054 1.297819
2009-06-29 06:40:13 51°13.661 2°55.958 21.7939 0.024302 0.119054 1.297819
2009-06-29 06:40:18 51°13.661 2°55.958 21.7931 0.024302 0.119056 1.262995
2009-06-29 06:40:22 51°13.661 2°55.958 21.7932 0.024302 0.119057 1.297819
2009-06-29 06:40:28 51°13.661 2°55.958 21.7917 0.024302 0.119059 1.297819
2009-06-29 06:40:33 51°13.661 2°55.958 21.7927 0.024302 0.119059 1.262995
2009-06-29 06:40:38 51°13.661 2°55.958 21.7939 0.024302 0.119059 1.262995
2009-06-29 06:40:42 51°13.661 2°55.957 21.7949 0.024302 0.119061 1.262995
2009-06-29 06:40:48 51°13.661 2°55.957 21.7951 0.024302 0.119061 1.262995
2009-06-29 06:40:53 51°13.661 2°55.957 21.7959 0.024302 0.119062 1.262995
2009-06-29 06:40:58 51°13.661 2°55.958 21.7964 0.024302 0.119064 1.262995
2009-06-29 06:41:03 51°13.661 2°55.958 21.7968 0.024302 0.119066 1.262995
2009-06-29 06:41:08 51°13.661 2°55.958 21.798 0.024302 0.119067 1.297819
2009-06-29 06:41:13 51°13.661 2°55.958 21.7988 0.024302 0.119067 1.297819
2009-06-29 06:41:18 51°13.661 2°55.958 21.7989 0.024302 0.119067 1.262995
2009-06-29 06:41:22 51°13.661 2°55.958 21.8003 0.024302 0.119069 1.262995
2009-06-29 06:41:28 51°13.661 2°55.958 21.8012 0.024302 0.119071 1.262995
2009-06-29 06:41:33 51°13.661 2°55.958 21.8022 0.024302 0.119072 1.297819
2009-06-29 06:41:38 51°13.661 2°55.958 21.8019 0.024302 0.119072 1.297819
2009-06-29 06:41:43 51°13.662 2°55.958 21.8028 0.024302 0.119072 1.297819
2009-06-29 06:41:48 51°13.662 2°55.958 21.8027 0.024302 0.119074 1.262995
2009-06-29 06:41:53 51°13.662 2°55.958 21.8029 0.024302 0.119076 1.262995
2009-06-29 06:41:58 51°13.662 2°55.958 21.8034 0.024302 0.119077 1.262995
2009-06-29 06:42:02 51°13.662 2°55.958 21.8039 0.024302 0.119077 1.262995
2009-06-29 06:42:08 51°13.662 2°55.958 21.8047 0.024302 0.119079 1.262995
2009-06-29 06:42:13 51°13.662 2°55.958 21.8048 0.024302 0.119079 1.262995
2009-06-29 06:42:18 51°13.662 2°55.958 21.8053 0.024302 0.11908 1.262995
2009-06-29 06:42:22 51°13.662 2°55.958 21.806 0.024302 0.119082 1.262995
2009-06-29 06:42:28 51°13.662 2°55.959 21.8054 0.024302 0.119082 1.297819
2009-06-29 06:42:33 51°13.662 2°55.959 21.8061 0.024302 0.119085 1.262995
2009-06-29 06:42:38 51°13.662 2°55.959 21.8072 0.024302 0.119085 1.297819
2009-06-29 06:42:42 51°13.661 2°55.959 21.808 0.024302 0.119085 1.297819
2009-06-29 06:42:48 51°13.661 2°55.959 21.8085 0.024302 0.119087 1.262995
2009-06-29 06:42:53 51°13.661 2°55.959 21.8092 0.024302 0.119089 1.262995
2009-06-29 06:42:58 51°13.662 2°55.959 21.81 0.024302 0.119089 1.262995
2009-06-29 06:43:03 51°13.661 2°55.959 21.8111 0.024302 0.11909 1.262995
2009-06-29 06:43:08 51°13.661 2°55.959 21.8111 0.024302 0.119092 1.297819
2009-06-29 06:43:13 51°13.661 2°55.959 21.8116 0.024302 0.119092 1.297819
2009-06-29 06:43:18 51°13.661 2°55.959 21.8116 0.024302 0.119094 1.262995
2009-06-29 06:43:23 51°13.661 2°55.959 21.8119 0.024302 0.119094 1.262995
2009-06-29 06:43:28 51°13.661 2°55.959 21.8125 0.024302 0.119095 1.262995
2009-06-29 06:43:33 51°13.661 2°55.959 21.813 0.024302 0.119095 1.262995
2009-06-29 06:43:38 51°13.661 2°55.959 21.8137 0.024302 0.119099 1.262995
2009-06-29 06:43:42 51°13.661 2°55.959 21.8138 0.024302 0.119099 1.262995
2009-06-29 06:43:48 51°13.661 2°55.959 21.8138 0.024302 0.119099 1.262995
2009-06-29 06:43:53 51°13.662 2°55.959 21.8127 0.024302 0.1191 1.262995
2009-06-29 06:43:58 51°13.662 2°55.959 21.8126 0.024302 0.119102 1.262995
2009-06-29 06:44:03 51°13.662 2°55.959 21.8139 0.024302 0.119103 1.262995
2009-06-29 06:44:08 51°13.662 2°55.959 21.8137 0.024302 0.119105 1.262995
2009-06-29 06:44:13 51°13.662 2°55.959 21.8148 0.024302 0.119105 1.262995
2009-06-29 06:44:18 51°13.662 2°55.959 21.8152 0.024302 0.119105 1.262995
2009-06-29 06:44:22 51°13.662 2°55.959 21.8161 0.024302 0.119107 1.262995
2009-06-29 06:44:28 51°13.662 2°55.959 21.8172 0.024302 0.119108 1.262995
2009-06-29 06:44:33 51°13.662 2°55.959 21.8172 0.024302 0.11911 1.262995
2009-06-29 06:44:38 51°13.662 2°55.959 21.8182 0.024302 0.11911 1.262995
2009-06-29 06:44:42 51°13.662 2°55.959 21.8186 0.024302 0.11911 1.262995
2009-06-29 06:44:48 51°13.662 2°55.959 21.8197 0.024302 0.119112 1.262995
2009-06-29 06:44:53 51°13.662 2°55.959 21.8199 0.024302 0.119113 1.262995
2009-06-29 06:44:58 51°13.662 2°55.959 21.8207 0.024302 0.119115 1.262995
2009-06-29 06:45:02 51°13.662 2°55.959 21.8202 0.024302 0.119115 1.262995
2009-06-29 06:45:08 51°13.661 2°55.959 21.8209 0.024302 0.119117 1.262995
2009-06-29 06:45:13 51°13.662 2°55.959 21.8211 0.024302 0.119117 1.262995
2009-06-29 06:45:18 51°13.662 2°55.959 21.8218 0.024302 0.119118 1.262995
2009-06-29 06:45:23 51°13.662 2°55.959 21.8222 0.024302 0.11912 1.262995
2009-06-29 06:45:28 51°13.662 2°55.959 21.8232 0.024302 0.119122 1.262995
2009-06-29 06:45:33 51°13.662 2°55.959 21.8227 0.024302 0.119123 1.262995
2009-06-29 06:45:38 51°13.662 2°55.959 21.8226 0.024302 0.119123 1.262995
2009-06-29 06:45:43 51°13.662 2°55.959 21.824 0.024302 0.119125 1.262995
2009-06-29 06:45:48 51°13.662 2°55.959 21.8241 0.024302 0.119126 1.262995
2009-06-29 06:45:53 51°13.662 2°55.959 21.8242 0.024302 0.119128 1.262995
2009-06-29 06:45:58 51°13.662 2°55.959 21.8246 0.024302 0.11913 1.262995
2009-06-29 06:46:03 51°13.662 2°55.959 21.8247 0.024302 0.119131 1.262995
2009-06-29 06:46:08 51°13.662 2°55.959 21.8254 0.024302 0.119131 1.262995
2009-06-29 06:46:13 51°13.662 2°55.959 21.8266 0.024302 0.119131 1.262995
2009-06-29 06:46:18 51°13.662 2°55.959 21.8268 0.024302 0.119133 1.262995
2009-06-29 06:46:22 51°13.662 2°55.959 21.8275 0.024302 0.119135 1.262995
2009-06-29 06:46:28 51°13.662 2°55.959 21.8278 0.024302 0.119136 1.262995
2009-06-29 06:46:33 51°13.662 2°55.959 21.8284 0.024302 0.119138 1.262995
2009-06-29 06:46:38 51°13.662 2°55.959 21.8291 0.024302 0.119138 1.262995
2009-06-29 06:46:42 51°13.662 2°55.959 21.8291 0.024302 0.119138 1.262995
2009-06-29 06:46:48 51°13.662 2°55.959 21.8296 0.024302 0.11914 1.262995
2009-06-29 06:46:53 51°13.662 2°55.958 21.8307 0.024302 0.119141 1.262995
2009-06-29 06:46:58 51°13.662 2°55.958 21.8315 0.024199 0.11865 1.262995
2009-06-29 06:47:02 51°13.662 2°55.958 21.831 0.024302 0.119143 1.262995
2009-06-29 06:47:08 51°13.662 2°55.958 21.8322 0.024302 0.119145 1.262995
2009-06-29 06:47:13 51°13.662 2°55.958 21.833 0.024302 0.119145 1.262995
2009-06-29 06:47:18 51°13.662 2°55.958 21.8336 0.024199 0.118653 1.262995
2009-06-29 06:47:22 51°13.662 2°55.958 21.8348 0.024302 0.119148 1.262995
2009-06-29 06:47:28 51°13.662 2°55.958 21.8353 0.024302 0.11915 1.262995
2009-06-29 06:47:33 51°13.662 2°55.959 21.8362 0.024302 0.11915 1.262995
2009-06-29 06:47:38 51°13.662 2°55.959 21.8369 0.024302 0.119151 1.262995
2009-06-29 06:47:43 51°13.662 2°55.959 21.8374 0.024302 0.119151 1.262995
2009-06-29 06:47:48 51°13.662 2°55.959 21.8376 0.024199 0.11866 1.262995
2009-06-29 06:47:53 51°13.662 2°55.959 21.8367 0.024302 0.119154 1.262995
2009-06-29 06:47:58 51°13.662 2°55.959 21.8374 0.024199 0.118661 1.262995
2009-06-29 06:48:03 51°13.662 2°55.959 21.8379 0.024302 0.119156 1.262995
2009-06-29 06:48:08 51°13.663 2°55.959 21.8392 0.024199 0.118665 1.262995
2009-06-29 06:48:13 51°13.663 2°55.959 21.8397 0.024199 0.118665 1.262995
2009-06-29 06:48:18 51°13.663 2°55.959 21.8404 0.024199 0.118666 1.262995
2009-06-29 06:48:22 51°13.663 2°55.959 21.8412 0.024199 0.118666 1.262995
2009-06-29 06:48:28 51°13.663 2°55.959 21.8412 0.024199 0.118668 1.262995
2009-06-29 06:48:33 51°13.663 2°55.959 21.841 0.024302 0.119163 1.262995
2009-06-29 06:48:38 51°13.663 2°55.959 21.8418 0.024199 0.11867 1.262995
2009-06-29 06:48:42 51°13.663 2°55.96 21.8423 0.024199 0.11867 1.262995
2009-06-29 06:48:48 51°13.663 2°55.96 21.8435 0.024302 0.119164 1.262995
2009-06-29 06:48:53 51°13.663 2°55.96 21.8439 0.024302 0.119166 1.262995
2009-06-29 06:48:58 51°13.663 2°55.96 21.8452 0.024199 0.118673 1.262995
2009-06-29 06:49:02 51°13.663 2°55.96 21.8452 0.024302 0.119168 1.262995
2009-06-29 06:49:08 51°13.663 2°55.96 21.8463 0.024302 0.119169 1.262995
2009-06-29 06:49:13 51°13.663 2°55.96 21.8462 0.024302 0.119169 1.262995
2009-06-29 06:49:18 51°13.663 2°55.96 21.8476 0.024302 0.119169 1.262995
2009-06-29 06:49:23 51°13.663 2°55.96 21.848 0.024199 0.118678 1.262995
2009-06-29 06:49:28 51°13.663 2°55.961 21.8497 0.024199 0.118679 1.262995
2009-06-29 06:49:33 51°13.662 2°55.961 21.8494 0.024302 0.119174 1.262995
2009-06-29 06:49:38 51°13.662 2°55.961 21.8501 0.024199 0.118681 1.262995
2009-06-29 06:49:43 51°13.662 2°55.961 21.8501 0.024199 0.118681 1.262995
2009-06-29 06:49:48 51°13.663 2°55.961 21.8508 0.024302 0.119176 1.262995
2009-06-29 06:49:53 51°13.663 2°55.961 21.8505 0.024199 0.118683 1.262995
2009-06-29 06:49:58 51°13.663 2°55.961 21.8518 0.024199 0.118684 1.262995
2009-06-29 06:50:03 51°13.663 2°55.961 21.8519 0.024302 0.119179 1.262995
2009-06-29 06:50:08 51°13.663 2°55.961 21.8525 0.024199 0.118688 1.262995
2009-06-29 06:50:13 51°13.663 2°55.961 21.8519 0.024199 0.118688 1.262995
2009-06-29 06:50:18 51°13.663 2°55.961 21.8523 0.024302 0.119181 1.262995
2009-06-29 06:50:22 51°13.662 2°55.961 21.8527 0.024199 0.118689 1.262995
2009-06-29 06:50:28 51°13.662 2°55.962 21.8539 0.024199 0.118691 1.262995
2009-06-29 06:50:33 51°13.662 2°55.962 21.8536 0.024302 0.119186 1.262995
2009-06-29 06:50:38 51°13.662 2°55.962 21.8545 0.024199 0.118693 1.262995
2009-06-29 06:50:42 51°13.662 2°55.962 21.8542 0.024199 0.118693 1.262995
2009-06-29 06:50:48 51°13.663 2°55.962 21.855 0.024302 0.119187 1.262995
2009-06-29 06:50:53 51°13.663 2°55.962 21.855 0.024199 0.118696 1.262995
2009-06-29 06:50:58 51°13.663 2°55.962 21.8563 0.024199 0.118697 1.262995
2009-06-29 06:51:02 51°13.663 2°55.962 21.8554 0.024199 0.118697 1.262995
2009-06-29 06:51:08 51°13.663 2°55.962 21.8564 0.024199 0.118697 1.262995
2009-06-29 06:51:13 51°13.663 2°55.962 21.8564 0.024199 0.118699 1.262995
2009-06-29 06:51:18 51°13.663 2°55.962 21.8566 0.024302 0.119194 1.262995
2009-06-29 06:51:23 51°13.663 2°55.962 21.8577 0.024302 0.119196 1.262995
2009-06-29 06:51:28 51°13.663 2°55.962 21.8588 0.024302 0.119196 1.262995
2009-06-29 06:51:33 51°13.663 2°55.962 21.8592 0.024302 0.119197 1.262995
2009-06-29 06:51:38 51°13.663 2°55.962 21.8607 0.024199 0.118706 1.262995
2009-06-29 06:51:43 51°13.663 2°55.961 21.8611 0.024199 0.118706 1.262995
2009-06-29 06:51:48 51°13.663 2°55.961 21.8616 0.024302 0.119201 1.262995
2009-06-29 06:51:53 51°13.663 2°55.961 21.8622 0.024302 0.119202 1.262995
2009-06-29 06:51:58 51°13.663 2°55.961 21.8631 0.024302 0.119204 1.262995
2009-06-29 06:52:03 51°13.663 2°55.961 21.8633 0.024302 0.119204 1.262995
2009-06-29 06:52:08 51°13.663 2°55.961 21.864 0.024199 0.118712 1.228171
2009-06-29 06:52:13 51°13.663 2°55.961 21.8652 0.024199 0.118712 1.228171
2009-06-29 06:52:18 51°13.663 2°55.961 21.8658 0.024302 0.119206 1.228171
2009-06-29 06:52:22 51°13.663 2°55.961 21.8653 0.024302 0.119207 1.262995
2009-06-29 06:52:28 51°13.663 2°55.961 21.8665 0.024302 0.119209 1.262995
2009-06-29 06:52:33 51°13.663 2°55.961 21.8673 0.024302 0.11921 1.262995
2009-06-29 06:52:38 51°13.663 2°55.96 21.8681 0.024302 0.11921 1.262995
2009-06-29 06:52:42 51°13.663 2°55.96 21.8686 0.024302 0.11921 1.262995
2009-06-29 06:52:48 51°13.662 2°55.96 21.8696 0.024302 0.119212 1.262995
2009-06-29 06:52:53 51°13.662 2°55.96 21.8684 0.024199 0.11872 1.228171
2009-06-29 06:52:58 51°13.662 2°55.96 21.8693 0.024302 0.119215 1.228171
2009-06-29 06:53:02 51°13.662 2°55.96 21.8701 0.024302 0.119215 1.262995
2009-06-29 06:53:08 51°13.662 2°55.96 21.8713 0.024199 0.118724 1.262995
2009-06-29 06:53:13 51°13.662 2°55.96 21.8724 0.024199 0.118724 1.262995
2009-06-29 06:53:18 51°13.662 2°55.96 21.8732 0.024302 0.119219 1.262995
2009-06-29 06:53:22 51°13.662 2°55.96 21.8742 0.024302 0.119219 1.228171
2009-06-29 06:53:28 51°13.662 2°55.96 21.8744 0.024199 0.118727 1.228171
2009-06-29 06:53:33 51°13.663 2°55.96 21.8746 0.024302 0.11922 1.228171
2009-06-29 06:53:38 51°13.663 2°55.96 21.8756 0.024199 0.118729 1.228171
2009-06-29 06:53:43 51°13.663 2°55.96 21.8751 0.024199 0.118729 1.228171
2009-06-29 06:53:48 51°13.663 2°55.96 21.8769 0.024302 0.119224 1.228171
2009-06-29 06:53:53 51°13.663 2°55.96 21.8778 0.024199 0.11873 1.262995
2009-06-29 06:53:58 51°13.663 2°55.96 21.8792 0.024302 0.119225 1.262995
2009-06-29 06:54:03 51°13.663 2°55.96 21.8795 0.024302 0.119227 1.228171
2009-06-29 06:54:08 51°13.663 2°55.96 21.8802 0.024302 0.119229 1.228171
2009-06-29 06:54:13 51°13.663 2°55.96 21.8809 0.024302 0.119229 1.228171
2009-06-29 06:54:18 51°13.662 2°55.96 21.8817 0.024302 0.119229 1.228171
2009-06-29 06:54:22 51°13.662 2°55.959 21.8829 0.024302 0.11923 1.262995
2009-06-29 06:54:28 51°13.662 2°55.959 21.8833 0.024302 0.119232 1.262995
2009-06-29 06:54:33 51°13.662 2°55.959 21.8836 0.024302 0.119234 1.262995
2009-06-29 06:54:38 51°13.662 2°55.959 21.8842 0.024302 0.119234 1.262995
2009-06-29 06:54:42 51°13.662 2°55.959 21.8852 0.024302 0.119235 1.228171
2009-06-29 06:54:48 51°13.663 2°55.959 21.8865 0.024302 0.119235 1.228171
2009-06-29 06:54:53 51°13.663 2°55.959 21.8868 0.024302 0.119237 1.228171
2009-06-29 06:54:58 51°13.663 2°55.959 21.8881 0.024302 0.119239 1.262995
2009-06-29 06:55:02 51°13.663 2°55.959 21.8886 0.024302 0.119239 1.228171
2009-06-29 06:55:08 51°13.663 2°55.959 21.8879 0.024302 0.11924 1.228171
2009-06-29 06:55:13 51°13.663 2°55.959 21.8894 0.024302 0.11924 1.228171
2009-06-29 06:55:18 51°13.663 2°55.959 21.8893 0.024302 0.119242 1.262995
2009-06-29 06:55:22 51°13.662 2°55.959 21.8898 0.024302 0.119243 1.228171
2009-06-29 06:55:28 51°13.663 2°55.959 21.8907 0.024302 0.119245 1.262995
2009-06-29 06:55:33 51°13.663 2°55.959 21.8911 0.024302 0.119245 1.228171
2009-06-29 06:55:38 51°13.662 2°55.959 21.8914 0.024302 0.119247 1.228171
2009-06-29 06:55:43 51°13.662 2°55.959 21.8928 0.024302 0.119247 1.228171
2009-06-29 06:55:48 51°13.662 2°55.959 21.8922 0.024302 0.119248 1.228171
2009-06-29 06:55:53 51°13.662 2°55.959 21.8929 0.024302 0.119248 1.262995
2009-06-29 06:55:58 51°13.662 2°55.959 21.8925 0.024302 0.11925 1.228171
2009-06-29 06:56:03 51°13.662 2°55.96 21.8938 0.024302 0.119252 1.262995
2009-06-29 06:56:08 51°13.662 2°55.96 21.8942 0.024302 0.119252 1.228171
2009-06-29 06:56:13 51°13.662 2°55.96 21.895 0.024302 0.119252 1.228171
2009-06-29 06:56:18 51°13.662 2°55.96 21.8949 0.024302 0.119253 1.228171
2009-06-29 06:56:23 51°13.663 2°55.96 21.8946 0.024302 0.119255 1.262995
2009-06-29 06:56:28 51°13.663 2°55.96 21.8956 0.024302 0.119257 1.228171
2009-06-29 06:56:33 51°13.663 2°55.96 21.8962 0.024302 0.119258 1.228171
2009-06-29 06:56:38 51°13.663 2°55.96 21.8976 0.024302 0.119258 1.228171
2009-06-29 06:56:42 51°13.663 2°55.96 21.8981 0.024302 0.119258 1.228171
2009-06-29 06:56:48 51°13.663 2°55.96 21.8992 0.024199 0.118766 1.228171
2009-06-29 06:56:53 51°13.663 2°55.96 21.9005 0.024302 0.119262 1.228171
2009-06-29 06:56:58 51°13.663 2°55.96 21.9012 0.024302 0.119262 1.228171
2009-06-29 06:57:02 51°13.663 2°55.959 21.9015 0.024199 0.11877 1.228171
2009-06-29 06:57:08 51°13.662 2°55.96 21.9023 0.024199 0.118771 1.228171
2009-06-29 06:57:13 51°13.662 2°55.96 21.9033 0.024199 0.118771 1.228171
2009-06-29 06:57:18 51°13.662 2°55.96 21.9035 0.024302 0.119265 1.228171
2009-06-29 06:57:22 51°13.662 2°55.96 21.904 0.024302 0.119267 1.228171
2009-06-29 06:57:28 51°13.662 2°55.96 21.9044 0.024302 0.119268 1.228171
2009-06-29 06:57:33 51°13.662 2°55.96 21.9049 0.024302 0.119268 1.228171
2009-06-29 06:57:38 51°13.662 2°55.96 21.9053 0.024302 0.11927 1.228171
2009-06-29 06:57:43 51°13.662 2°55.96 21.9053 0.024302 0.11927 1.228171
2009-06-29 06:57:48 51°13.662 2°55.96 21.9041 0.024302 0.11927 1.228171
2009-06-29 06:57:53 51°13.662 2°55.96 21.9034 0.024302 0.119272 1.228171
2009-06-29 06:57:58 51°13.662 2°55.96 21.9017 0.024302 0.119273 1.228171
2009-06-29 06:58:02 51°13.663 2°55.96 21.9035 0.024302 0.119275 1.228171
2009-06-29 06:58:08 51°13.663 2°55.959 21.904 0.024302 0.119275 1.262995
2009-06-29 06:58:13 51°13.663 2°55.959 21.905 0.024302 0.119275 1.262995
2009-06-29 06:58:18 51°13.663 2°55.959 21.9052 0.024199 0.118783 1.228171
2009-06-29 06:58:22 51°13.663 2°55.959 21.9065 0.024199 0.118783 1.228171
2009-06-29 06:58:28 51°13.663 2°55.959 21.9069 0.024302 0.119278 1.228171
2009-06-29 06:58:33 51°13.663 2°55.959 21.9083 0.024199 0.118784 1.228171
2009-06-29 06:58:38 51°13.663 2°55.959 21.9091 0.024302 0.11928 1.228171
2009-06-29 06:58:42 51°13.663 2°55.959 21.9104 0.024302 0.11928 1.228171
2009-06-29 06:58:48 51°13.663 2°55.959 21.9105 0.024302 0.119281 1.262995
2009-06-29 06:58:53 51°13.663 2°55.959 21.9108 0.024302 0.119283 1.228171
2009-06-29 06:58:58 51°13.663 2°55.959 21.9111 0.024302 0.119283 1.228171
2009-06-29 06:59:02 51°13.663 2°55.959 21.9119 0.024302 0.119285 1.228171
2009-06-29 06:59:08 51°13.662 2°55.959 21.9125 0.024302 0.119285 1.228171
2009-06-29 06:59:13 51°13.662 2°55.959 21.9135 0.024302 0.119285 1.228171
2009-06-29 06:59:18 51°13.662 2°55.959 21.9144 0.024302 0.119288 1.228171
2009-06-29 06:59:23 51°13.662 2°55.959 21.9149 0.024302 0.119288 1.228171
2009-06-29 06:59:28 51°13.662 2°55.959 21.9151 0.024302 0.11929 1.228171
2009-06-29 06:59:33 51°13.662 2°55.959 21.9162 0.024302 0.11929 1.228171
2009-06-29 06:59:38 51°13.662 2°55.959 21.9162 0.024302 0.119291 1.228171
2009-06-29 06:59:42 51°13.662 2°55.959 21.9174 0.024302 0.119291 1.228171
2009-06-29 06:59:48 51°13.662 2°55.959 21.917 0.024302 0.119293 1.228171
2009-06-29 06:59:53 51°13.662 2°55.959 21.9181 0.024302 0.119295 1.228171
2009-06-29 06:59:58 51°13.662 2°55.958 21.918 0.024302 0.119295 1.228171
2009-06-29 07:00:03 51°13.662 2°55.958 21.9189 0.024302 0.119296 1.228171
2009-06-29 07:00:07 51°13.662 2°55.958 21.9196 0.024302 0.119296 1.228171
2009-06-29 07:00:13 51°13.662 2°55.958 21.9197 0.024302 0.119296 1.228171
2009-06-29 07:00:18 51°13.662 2°55.958 21.9206 0.024302 0.119298 1.228171
2009-06-29 07:00:22 51°13.662 2°55.958 21.9209 0.024302 0.1193 1.228171
2009-06-29 07:00:28 51°13.662 2°55.958 21.9212 0.024302 0.1193 1.228171
2009-06-29 07:00:33 51°13.662 2°55.958 21.9223 0.024302 0.119301 1.228171
2009-06-29 07:00:38 51°13.662 2°55.958 21.9229 0.024302 0.119301 1.228171
2009-06-29 07:00:42 51°13.662 2°55.958 21.9234 0.024302 0.119301 1.228171
2009-06-29 07:00:48 51°13.662 2°55.958 21.9237 0.024302 0.119305 1.228171
2009-06-29 07:00:53 51°13.662 2°55.958 21.9238 0.024302 0.119305 1.228171
2009-06-29 07:00:58 51°13.662 2°55.958 21.9241 0.024302 0.119306 1.228171
2009-06-29 07:01:02 51°13.662 2°55.958 21.9249 0.024302 0.119308 1.228171
2009-06-29 07:01:08 51°13.662 2°55.958 21.926 0.024302 0.119308 1.228171
2009-06-29 07:01:13 51°13.662 2°55.958 21.9272 0.024302 0.119308 1.228171
2009-06-29 07:01:18 51°13.662 2°55.958 21.9278 0.024199 0.118816 1.228171
2009-06-29 07:01:22 51°13.662 2°55.958 21.9292 0.024199 0.118817 1.228171
2009-06-29 07:01:28 51°13.662 2°55.958 21.9305 0.024302 0.119313 1.228171
2009-06-29 07:01:33 51°13.662 2°55.958 21.9314 0.024302 0.119313 1.228171
2009-06-29 07:01:38 51°13.662 2°55.958 21.9317 0.024302 0.119313 1.228171
2009-06-29 07:01:43 51°13.662 2°55.958 21.9321 0.024302 0.119314 1.228171
2009-06-29 07:01:48 51°13.662 2°55.958 21.9324 0.024302 0.119316 1.228171
2009-06-29 07:01:53 51°13.662 2°55.958 21.9331 0.024302 0.119318 1.228171
2009-06-29 07:01:58 51°13.662 2°55.958 21.9336 0.024302 0.119318 1.228171
2009-06-29 07:02:02 51°13.662 2°55.958 21.9341 0.024302 0.119319 1.228171
2009-06-29 07:02:08 51°13.662 2°55.958 21.9355 0.024302 0.119321 1.228171
2009-06-29 07:02:13 51°13.662 2°55.958 21.9361 0.024302 0.119321 1.228171
2009-06-29 07:02:18 51°13.662 2°55.958 21.9366 0.024302 0.119321 1.228171
2009-06-29 07:02:23 51°13.662 2°55.958 21.9373 0.024199 0.118829 1.228171
2009-06-29 07:02:27 51°13.662 2°55.958 21.9385 0.024302 0.119324 1.228171
2009-06-29 07:02:33 51°13.662 2°55.958 21.9388 0.024302 0.119324 1.228171
2009-06-29 07:02:38 51°13.662 2°55.958 21.9395 0.024302 0.119326 1.228171
2009-06-29 07:02:42 51°13.662 2°55.958 21.9402 0.024302 0.119326 1.228171
2009-06-29 07:02:48 51°13.662 2°55.958 21.9412 0.024302 0.119328 1.228171
2009-06-29 07:02:53 51°13.662 2°55.958 21.9411 0.024302 0.119329 1.228171
2009-06-29 07:02:58 51°13.662 2°55.958 21.9425 0.024302 0.119331 1.228171
2009-06-29 07:03:02 51°13.662 2°55.958 21.9426 0.024302 0.119331 1.228171
2009-06-29 07:03:08 51°13.662 2°55.958 21.9438 0.024199 0.118839 1.228171
2009-06-29 07:03:13 51°13.662 2°55.958 21.9445 0.024199 0.118839 1.228171
2009-06-29 07:03:18 51°13.662 2°55.958 21.9462 0.024302 0.119334 1.228171
2009-06-29 07:03:23 51°13.662 2°55.958 21.9467 0.024199 0.118842 1.228171
2009-06-29 07:03:28 51°13.662 2°55.958 21.9471 0.024302 0.119338 1.228171
2009-06-29 07:03:33 51°13.662 2°55.958 21.9476 0.024302 0.119338 1.228171
2009-06-29 07:03:38 51°13.662 2°55.958 21.9479 0.024302 0.119339 1.228171
2009-06-29 07:03:43 51°13.662 2°55.958 21.9496 0.024302 0.119339 1.228171
2009-06-29 07:03:48 51°13.662 2°55.958 21.9509 0.024302 0.119341 1.228171
2009-06-29 07:03:53 51°13.662 2°55.958 21.9513 0.024302 0.119343 1.228171
2009-06-29 07:03:58 51°13.662 2°55.958 21.9516 0.024302 0.119344 1.228171
2009-06-29 07:04:03 51°13.662 2°55.958 21.9523 0.024302 0.119344 1.228171
2009-06-29 07:04:08 51°13.662 2°55.958 21.9529 0.024302 0.119346 1.228171
2009-06-29 07:04:13 51°13.662 2°55.958 21.9532 0.024302 0.119346 1.228171
2009-06-29 07:04:18 51°13.662 2°55.958 21.9531 0.024199 0.118854 1.228171
2009-06-29 07:04:23 51°13.662 2°55.958 21.9542 0.024199 0.118855 1.228171
2009-06-29 07:04:28 51°13.663 2°55.958 21.9546 0.024302 0.119349 1.228171
2009-06-29 07:04:33 51°13.663 2°55.958 21.9557 0.024302 0.119351 1.228171
2009-06-29 07:04:38 51°13.663 2°55.958 21.9568 0.024302 0.119352 1.228171
2009-06-29 07:04:42 51°13.663 2°55.958 21.957 0.024302 0.119352 1.228171
2009-06-29 07:04:48 51°13.663 2°55.958 21.9578 0.024302 0.119354 1.228171
2009-06-29 07:04:53 51°13.663 2°55.958 21.9581 0.024302 0.119356 1.228171
2009-06-29 07:04:58 51°13.663 2°55.958 21.9593 0.024302 0.119357 1.228171
2009-06-29 07:05:02 51°13.662 2°55.958 21.9593 0.024199 0.118865 1.228171
2009-06-29 07:05:08 51°13.662 2°55.958 21.9593 0.024302 0.119361 1.228171
2009-06-29 07:05:13 51°13.662 2°55.958 21.9601 0.024302 0.119361 1.228171
2009-06-29 07:05:18 51°13.663 2°55.958 21.9613 0.024302 0.119361 1.228171
2009-06-29 07:05:23 51°13.663 2°55.958 21.9619 0.024302 0.119362 1.228171
2009-06-29 07:05:28 51°13.662 2°55.958 21.9629 0.024302 0.119364 1.228171
2009-06-29 07:05:33 51°13.662 2°55.958 21.9643 0.024302 0.119364 1.228171
2009-06-29 07:05:38 51°13.662 2°55.958 21.9647 0.024302 0.119366 1.228171
2009-06-29 07:05:43 51°13.662 2°55.958 21.9656 0.024302 0.119366 1.228171
2009-06-29 07:05:48 51°13.662 2°55.958 21.9653 0.024302 0.119367 1.228171
2009-06-29 07:05:53 51°13.662 2°55.958 21.9666 0.024302 0.119367 1.228171
2009-06-29 07:05:58 51°13.662 2°55.958 21.9671 0.024199 0.118877 1.193347
2009-06-29 07:06:03 51°13.662 2°55.958 21.9678 0.024302 0.119372 1.228171
2009-06-29 07:06:08 51°13.662 2°55.958 21.9681 0.024199 0.118878 1.228171
2009-06-29 07:06:13 51°13.662 2°55.958 21.9688 0.024199 0.118878 1.228171
2009-06-29 07:06:18 51°13.662 2°55.958 21.9698 0.024199 0.11888 1.228171
2009-06-29 07:06:22 51°13.662 2°55.958 21.9708 0.024302 0.119376 1.228171
2009-06-29 07:06:28 51°13.662 2°55.958 21.9709 0.024199 0.118883 1.228171
2009-06-29 07:06:33 51°13.662 2°55.959 21.9718 0.024199 0.118885 1.193347
2009-06-29 07:06:38 51°13.662 2°55.959 21.9728 0.024199 0.118885 1.228171
2009-06-29 07:06:42 51°13.662 2°55.959 21.9739 0.024199 0.118885 1.228171
2009-06-29 07:06:48 51°13.662 2°55.959 21.9753 0.024199 0.118886 1.228171
2009-06-29 07:06:53 51°13.662 2°55.959 21.9761 0.024199 0.118888 1.228171
2009-06-29 07:06:58 51°13.662 2°55.959 21.9774 0.024302 0.119382 1.228171
2009-06-29 07:07:03 51°13.662 2°55.959 21.9796 0.024199 0.11889 1.193347
2009-06-29 07:07:08 51°13.662 2°55.959 21.9803 0.024199 0.118891 1.228171
2009-06-29 07:07:13 51°13.662 2°55.959 21.9812 0.024199 0.118891 1.228171
2009-06-29 07:07:18 51°13.662 2°55.959 21.9825 0.024199 0.118893 1.193347
2009-06-29 07:07:22 51°13.662 2°55.959 21.9839 0.024199 0.118895 1.193347
2009-06-29 07:07:28 51°13.662 2°55.959 21.9855 0.024199 0.118896 1.228171
2009-06-29 07:07:33 51°13.662 2°55.959 21.9867 0.024199 0.118898 1.193347
2009-06-29 07:07:38 51°13.662 2°55.959 21.9871 0.024199 0.118898 1.193347
2009-06-29 07:07:43 51°13.661 2°55.959 21.9879 0.024199 0.118898 1.193347
2009-06-29 07:07:48 51°13.661 2°55.959 21.9882 0.024199 0.1189 1.228171
2009-06-29 07:07:53 51°13.662 2°55.959 21.9888 0.024199 0.118901 1.193347
2009-06-29 07:07:58 51°13.662 2°55.959 21.9898 0.024199 0.118903 1.193347
2009-06-29 07:08:03 51°13.662 2°55.959 21.9903 0.024199 0.118903 1.193347
2009-06-29 07:08:08 51°13.662 2°55.959 21.9896 0.024302 0.119399 1.228171
2009-06-29 07:08:13 51°13.662 2°55.959 21.9905 0.024302 0.119399 1.228171
2009-06-29 07:08:18 51°13.662 2°55.959 21.9918 0.024199 0.118906 1.228171
2009-06-29 07:08:23 51°13.662 2°55.959 21.9926 0.024199 0.118908 1.193347
2009-06-29 07:08:28 51°13.662 2°55.959 21.9922 0.024199 0.118908 1.228171
2009-06-29 07:08:33 51°13.662 2°55.959 21.993 0.024199 0.118911 1.193347
2009-06-29 07:08:38 51°13.662 2°55.959 21.9947 0.024199 0.118911 1.193347
2009-06-29 07:08:43 51°13.662 2°55.959 21.9954 0.024199 0.118911 1.193347
2009-06-29 07:08:48 51°13.662 2°55.959 21.9959 0.024199 0.118913 1.193347
2009-06-29 07:08:53 51°13.662 2°55.959 21.9972 0.024199 0.118914 1.193347
2009-06-29 07:08:58 51°13.663 2°55.959 21.9994 0.024199 0.118914 1.193347
2009-06-29 07:09:02 51°13.663 2°55.959 22.0013 0.024199 0.118916 1.193347
2009-06-29 07:09:08 51°13.663 2°55.959 22.0027 0.024199 0.118918 1.193347
2009-06-29 07:09:13 51°13.663 2°55.959 22.0038 0.024199 0.118918 1.193347
2009-06-29 07:09:18 51°13.663 2°55.959 22.0045 0.024199 0.118919 1.228171
2009-06-29 07:09:23 51°13.663 2°55.959 22.0048 0.024199 0.118919 1.193347
2009-06-29 07:09:28 51°13.663 2°55.959 22.0055 0.024199 0.118921 1.193347
2009-06-29 07:09:33 51°13.663 2°55.959 22.0058 0.024199 0.118923 1.193347
2009-06-29 07:09:38 51°13.663 2°55.959 22.0066 0.024199 0.118924 1.193347
2009-06-29 07:09:43 51°13.663 2°55.959 22.0069 0.024199 0.118924 1.193347
2009-06-29 07:09:48 51°13.663 2°55.959 22.0065 0.024199 0.118924 1.193347
2009-06-29 07:09:53 51°13.663 2°55.959 22.0073 0.024199 0.118926 1.193347
2009-06-29 07:09:58 51°13.663 2°55.959 22.008 0.024199 0.118928 1.193347
2009-06-29 07:10:03 51°13.663 2°55.959 22.008 0.024199 0.118929 1.228171
2009-06-29 07:10:08 51°13.663 2°55.959 22.0092 0.024199 0.118929 1.193347
2009-06-29 07:10:18 51°13.663 2°55.959 22.0094 0.024199 0.118931 1.193347
2009-06-29 07:10:24 51°13.663 2°55.959 22.0113 0.024199 0.118933 1.193347
2009-06-29 07:10:29 51°13.663 2°55.959 22.0118 0.024199 0.118934 1.193347
2009-06-29 07:10:34 51°13.663 2°55.959 22.0128 0.024199 0.118934 1.193347
2009-06-29 07:10:38 51°13.663 2°55.959 22.0139 0.024199 0.118936 1.193347
2009-06-29 07:10:44 51°13.662 2°55.959 22.0137 0.024199 0.118938 1.193347
2009-06-29 07:10:49 51°13.662 2°55.959 22.0153 0.024199 0.118938 1.193347
2009-06-29 07:10:54 51°13.662 2°55.959 22.0155 0.024199 0.118938 1.193347
2009-06-29 07:10:59 51°13.662 2°55.959 22.0156 0.024199 0.118939 1.228171
2009-06-29 07:11:04 51°13.662 2°55.959 22.0151 0.024199 0.118941 1.193347
2009-06-29 07:11:09 51°13.662 2°55.959 22.0157 0.024199 0.118941 1.193347
2009-06-29 07:11:14 51°13.662 2°55.959 22.016 0.024199 0.118943 1.193347
2009-06-29 07:11:19 51°13.662 2°55.959 22.0176 0.024199 0.118943 1.193347
2009-06-29 07:11:24 51°13.662 2°55.959 22.0176 0.024199 0.118944 1.228171
2009-06-29 07:11:29 51°13.662 2°55.959 22.0189 0.024199 0.118946 1.193347
2009-06-29 07:11:34 51°13.662 2°55.959 22.0195 0.024199 0.118946 1.193347
2009-06-29 07:11:39 51°13.662 2°55.959 22.02 0.024199 0.118949 1.193347
2009-06-29 07:11:44 51°13.662 2°55.959 22.0207 0.024199 0.118949 1.193347
2009-06-29 07:11:49 51°13.662 2°55.959 22.021 0.024199 0.118949 1.193347
2009-06-29 07:11:54 51°13.662 2°55.959 22.0218 0.024199 0.118949 1.228171
2009-06-29 07:11:59 51°13.662 2°55.959 22.023 0.024199 0.118952 1.228171
2009-06-29 07:12:04 51°13.662 2°55.959 22.0237 0.024199 0.118952 1.193347
2009-06-29 07:12:09 51°13.662 2°55.959 22.0251 0.024199 0.118954 1.193347
2009-06-29 07:12:14 51°13.662 2°55.959 22.0251 0.024199 0.118956 1.193347
2009-06-29 07:12:19 51°13.663 2°55.959 22.0265 0.024199 0.118956 1.193347
2009-06-29 07:12:24 51°13.663 2°55.959 22.0272 0.024199 0.118956 1.193347
2009-06-29 07:12:29 51°13.663 2°55.959 22.0279 0.024199 0.118959 1.193347
2009-06-29 07:12:34 51°13.663 2°55.959 22.0284 0.024199 0.118959 1.193347
2009-06-29 07:12:38 51°13.663 2°55.959 22.0298 0.024199 0.118961 1.193347
2009-06-29 07:12:44 51°13.663 2°55.959 22.0291 0.024199 0.118961 1.193347
2009-06-29 07:12:49 51°13.663 2°55.959 22.0298 0.024199 0.118962 1.193347
2009-06-29 07:12:54 51°13.663 2°55.959 22.0313 0.024199 0.118964 1.193347
2009-06-29 07:12:59 51°13.663 2°55.959 22.0323 0.024199 0.118964 1.193347
2009-06-29 07:13:04 51°13.663 2°55.959 22.0326 0.024096 0.118471 1.193347
2009-06-29 07:13:09 51°13.663 2°55.959 22.0334 0.024199 0.118967 1.193347
2009-06-29 07:13:14 51°13.663 2°55.959 22.0349 0.024199 0.118967 1.193347
2009-06-29 07:13:19 51°13.663 2°55.959 22.0354 0.024199 0.118967 1.193347
2009-06-29 07:13:24 51°13.663 2°55.959 22.036 0.024199 0.118969 1.193347
2009-06-29 07:13:29 51°13.663 2°55.959 22.0377 0.024199 0.118971 1.193347
2009-06-29 07:13:34 51°13.663 2°55.959 22.038 0.024199 0.118972 1.193347
2009-06-29 07:13:39 51°13.663 2°55.959 22.0382 0.024199 0.118974 1.193347
2009-06-29 07:13:44 51°13.663 2°55.959 22.0389 0.024199 0.118974 1.193347
2009-06-29 07:13:49 51°13.663 2°55.959 22.0399 0.024199 0.118974 1.193347
2009-06-29 07:13:54 51°13.663 2°55.959 22.0409 0.024199 0.118975 1.193347
2009-06-29 07:13:58 51°13.663 2°55.959 22.042 0.024199 0.118977 1.193347
2009-06-29 07:14:04 51°13.663 2°55.959 22.0414 0.024199 0.118979 1.193347
2009-06-29 07:14:09 51°13.663 2°55.959 22.0416 0.024199 0.118979 1.193347
2009-06-29 07:14:14 51°13.663 2°55.959 22.0427 0.024199 0.11898 1.193347
2009-06-29 07:14:18 51°13.663 2°55.959 22.0435 0.024199 0.11898 1.193347
2009-06-29 07:14:24 51°13.663 2°55.959 22.0449 0.024199 0.118982 1.193347
2009-06-29 07:14:29 51°13.663 2°55.959 22.046 0.024199 0.118984 1.193347
2009-06-29 07:14:34 51°13.662 2°55.959 22.0474 0.024199 0.118985 1.193347
2009-06-29 07:14:38 51°13.662 2°55.959 22.048 0.024199 0.118985 1.193347
2009-06-29 07:14:44 51°13.663 2°55.959 22.0489 0.024199 0.118987 1.193347
2009-06-29 07:14:49 51°13.663 2°55.959 22.0487 0.024199 0.118987 1.193347
2009-06-29 07:14:54 51°13.663 2°55.959 22.0492 0.024199 0.118987 1.193347
2009-06-29 07:14:59 51°13.663 2°55.959 22.0497 0.024199 0.11899 1.193347
2009-06-29 07:15:04 51°13.663 2°55.959 22.051 0.024199 0.11899 1.193347
2009-06-29 07:15:09 51°13.663 2°55.959 22.051 0.024096 0.118497 1.193347
2009-06-29 07:15:14 51°13.663 2°55.959 22.0511 0.024199 0.118994 1.193347
2009-06-29 07:15:18 51°13.663 2°55.959 22.0523 0.024199 0.118994 1.193347
2009-06-29 07:15:24 51°13.663 2°55.959 22.0527 0.024199 0.118995 1.193347
2009-06-29 07:15:29 51°13.663 2°55.959 22.0535 0.024199 0.118995 1.193347
2009-06-29 07:15:34 51°13.663 2°55.959 22.0539 0.024199 0.118997 1.193347
2009-06-29 07:15:38 51°13.663 2°55.959 22.0545 0.024199 0.118999 1.193347
2009-06-29 07:15:44 51°13.663 2°55.959 22.056 0.024199 0.118999 1.193347
2009-06-29 07:15:49 51°13.663 2°55.959 22.0563 0.024199 0.118999 1.193347
2009-06-29 07:15:54 51°13.663 2°55.959 22.0573 0.024199 0.119 1.193347
2009-06-29 07:15:59 51°13.663 2°55.959 22.0579 0.024199 0.119002 1.193347
2009-06-29 07:16:04 51°13.663 2°55.959 22.0584 0.024199 0.119002 1.193347
2009-06-29 07:16:09 51°13.663 2°55.959 22.0593 0.024199 0.119005 1.193347
2009-06-29 07:16:14 51°13.663 2°55.959 22.0595 0.024199 0.119005 1.193347
2009-06-29 07:16:19 51°13.663 2°55.959 22.0611 0.024199 0.119005 1.193347
2009-06-29 07:16:24 51°13.663 2°55.959 22.0615 0.024199 0.119007 1.193347
2009-06-29 07:16:29 51°13.663 2°55.959 22.0605 0.024199 0.119007 1.193347
2009-06-29 07:16:34 51°13.663 2°55.96 22.0603 0.024199 0.11901 1.193347
2009-06-29 07:16:39 51°13.663 2°55.96 22.0611 0.024199 0.11901 1.193347
2009-06-29 07:16:44 51°13.663 2°55.96 22.0614 0.024199 0.119012 1.193347
2009-06-29 07:16:49 51°13.663 2°55.959 22.0627 0.024199 0.119012 1.193347
2009-06-29 07:16:54 51°13.663 2°55.96 22.0643 0.024199 0.119013 1.193347
2009-06-29 07:16:58 51°13.663 2°55.96 22.0649 0.024199 0.119015 1.193347
2009-06-29 07:17:04 51°13.663 2°55.96 22.0658 0.024199 0.119015 1.193347
2009-06-29 07:17:09 51°13.663 2°55.96 22.0661 0.024199 0.119017 1.193347
2009-06-29 07:17:14 51°13.663 2°55.96 22.0671 0.024199 0.119018 1.193347
2009-06-29 07:17:18 51°13.663 2°55.96 22.0675 0.024199 0.119018 1.193347
2009-06-29 07:17:24 51°13.663 2°55.96 22.0668 0.024199 0.119018 1.193347
2009-06-29 07:17:29 51°13.663 2°55.96 22.0673 0.024199 0.11902 1.193347
2009-06-29 07:17:34 51°13.663 2°55.96 22.067 0.024199 0.11902 1.193347
2009-06-29 07:17:39 51°13.663 2°55.96 22.069 0.024199 0.119022 1.193347
2009-06-29 07:17:44 51°13.663 2°55.959 22.0704 0.024199 0.119023 1.193347
2009-06-29 07:17:49 51°13.663 2°55.959 22.0716 0.024199 0.119023 1.193347
2009-06-29 07:17:54 51°13.663 2°55.96 22.0723 0.024199 0.119025 1.193347
2009-06-29 07:17:59 51°13.663 2°55.96 22.0741 0.024199 0.119025 1.193347
2009-06-29 07:18:04 51°13.663 2°55.959 22.0742 0.024199 0.119027 1.158523
2009-06-29 07:18:09 51°13.663 2°55.96 22.075 0.024096 0.118534 1.193347
2009-06-29 07:18:14 51°13.664 2°55.959 22.0757 0.024199 0.119028 1.193347
2009-06-29 07:18:19 51°13.664 2°55.959 22.0758 0.024199 0.119028 1.193347
2009-06-29 07:18:24 51°13.664 2°55.959 22.0762 0.024199 0.119032 1.193347
2009-06-29 07:18:29 51°13.664 2°55.96 22.077 0.024199 0.119032 1.158523
2009-06-29 07:18:34 51°13.664 2°55.96 22.077 0.024199 0.119033 1.193347
2009-06-29 07:18:38 51°13.664 2°55.96 22.0783 0.024199 0.119033 1.193347
2009-06-29 07:18:44 51°13.664 2°55.96 22.0795 0.024199 0.119035 1.193347
2009-06-29 07:18:49 51°13.664 2°55.96 22.0803 0.024199 0.119035 1.193347
2009-06-29 07:18:54 51°13.664 2°55.96 22.0811 0.024199 0.119037 1.193347
2009-06-29 07:18:59 51°13.665 2°55.96 22.0816 0.024199 0.119038 1.193347
2009-06-29 07:19:04 51°13.665 2°55.96 22.0819 0.024199 0.119038 1.158523
2009-06-29 07:19:09 51°13.665 2°55.96 22.0833 0.024199 0.11904 1.193347
2009-06-29 07:19:14 51°13.665 2°55.96 22.0843 0.024199 0.11904 1.193347
2009-06-29 07:19:18 51°13.665 2°55.96 22.0847 0.024199 0.11904 1.193347
2009-06-29 07:19:24 51°13.665 2°55.96 22.085 0.024096 0.118547 1.158523
2009-06-29 07:19:29 51°13.665 2°55.96 22.0869 0.024199 0.119043 1.193347
2009-06-29 07:19:34 51°13.665 2°55.96 22.0875 0.024199 0.119043 1.158523
2009-06-29 07:19:38 51°13.665 2°55.96 22.0891 0.024199 0.119045 1.158523
2009-06-29 07:19:44 51°13.665 2°55.96 22.0883 0.024199 0.119045 1.193347
2009-06-29 07:19:49 51°13.665 2°55.96 22.0899 0.024199 0.119045 1.193347
2009-06-29 07:19:54 51°13.665 2°55.96 22.0904 0.024199 0.119047 1.193347
2009-06-29 07:19:59 51°13.665 2°55.96 22.091 0.024199 0.119048 1.158523
2009-06-29 07:20:04 51°13.665 2°55.96 22.0921 0.024199 0.119048 1.193347
2009-06-29 07:20:09 51°13.665 2°55.96 22.0931 0.024199 0.119051 1.193347
2009-06-29 07:20:14 51°13.665 2°55.96 22.0933 0.024199 0.119051 1.158523
2009-06-29 07:20:19 51°13.665 2°55.96 22.094 0.024199 0.119051 1.158523
2009-06-29 07:20:24 51°13.664 2°55.96 22.0928 0.024199 0.119053 1.158523
2009-06-29 07:20:29 51°13.665 2°55.96 22.0928 0.024199 0.119055 1.193347
2009-06-29 07:20:34 51°13.664 2°55.96 22.093 0.024199 0.119055 1.158523
2009-06-29 07:20:39 51°13.664 2°55.96 22.094 0.024199 0.119056 1.193347
2009-06-29 07:20:44 51°13.664 2°55.96 22.0963 0.024199 0.119058 1.193347
2009-06-29 07:20:49 51°13.664 2°55.96 22.0973 0.024199 0.119058 1.193347
2009-06-29 07:20:54 51°13.664 2°55.96 22.0982 0.024199 0.119058 1.193347
2009-06-29 07:20:58 51°13.664 2°55.96 22.0992 0.024199 0.11906 1.193347
2009-06-29 07:21:04 51°13.664 2°55.96 22.1002 0.024199 0.119061 1.158523
2009-06-29 07:21:09 51°13.664 2°55.96 22.1014 0.024096 0.118567 1.158523
2009-06-29 07:21:14 51°13.664 2°55.96 22.1021 0.024199 0.119063 1.158523
2009-06-29 07:21:19 51°13.664 2°55.96 22.1024 0.024199 0.119063 1.158523
2009-06-29 07:21:24 51°13.664 2°55.96 22.1029 0.024199 0.119065 1.158523
2009-06-29 07:21:29 51°13.664 2°55.96 22.1046 0.024199 0.119066 1.158523
2009-06-29 07:21:34 51°13.664 2°55.96 22.1053 0.024199 0.119068 1.193347
2009-06-29 07:21:39 51°13.664 2°55.959 22.106 0.024199 0.119068 1.193347
2009-06-29 07:21:44 51°13.664 2°55.959 22.1071 0.024199 0.11907 1.158523
2009-06-29 07:21:49 51°13.664 2°55.959 22.1078 0.024199 0.11907 1.158523
2009-06-29 07:21:54 51°13.664 2°55.959 22.1083 0.024199 0.119071 1.158523
2009-06-29 07:21:59 51°13.664 2°55.959 22.1097 0.024199 0.119071 1.193347
2009-06-29 07:22:04 51°13.664 2°55.959 22.11 0.024199 0.119073 1.158523
2009-06-29 07:22:09 51°13.664 2°55.959 22.1113 0.024199 0.119075 1.193347
2009-06-29 07:22:14 51°13.664 2°55.959 22.112 0.024199 0.119075 1.158523
2009-06-29 07:22:18 51°13.664 2°55.959 22.1126 0.024199 0.119075 1.158523
2009-06-29 07:22:24 51°13.663 2°55.959 22.1132 0.024199 0.119076 1.158523
2009-06-29 07:22:29 51°13.663 2°55.959 22.113 0.024199 0.119078 1.193347
2009-06-29 07:22:34 51°13.663 2°55.959 22.1139 0.024199 0.11908 1.193347
2009-06-29 07:22:39 51°13.663 2°55.959 22.1151 0.024199 0.11908 1.158523
2009-06-29 07:22:44 51°13.663 2°55.959 22.1153 0.024199 0.119081 1.158523
2009-06-29 07:22:49 51°13.663 2°55.959 22.1153 0.024199 0.119081 1.158523
2009-06-29 07:22:54 51°13.663 2°55.959 22.1163 0.024199 0.119083 1.158523
2009-06-29 07:22:59 51°13.663 2°55.959 22.1173 0.024199 0.119085 1.193347
2009-06-29 07:23:04 51°13.663 2°55.959 22.1176 0.024199 0.119085 1.158523
2009-06-29 07:23:09 51°13.663 2°55.959 22.1182 0.024199 0.119086 1.158523
2009-06-29 07:23:14 51°13.663 2°55.959 22.1189 0.024199 0.119086 1.158523
2009-06-29 07:23:19 51°13.663 2°55.959 22.1197 0.024199 0.119086 1.158523
2009-06-29 07:23:24 51°13.663 2°55.959 22.1201 0.024199 0.119088 1.158523
2009-06-29 07:23:29 51°13.663 2°55.959 22.1214 0.024199 0.11909 1.158523
2009-06-29 07:23:34 51°13.663 2°55.96 22.1221 0.024199 0.11909 1.158523
2009-06-29 07:23:38 51°13.663 2°55.959 22.1227 0.024199 0.119091 1.193347
2009-06-29 07:23:44 51°13.663 2°55.96 22.1245 0.024199 0.119093 1.158523
2009-06-29 07:23:49 51°13.663 2°55.96 22.1245 0.024199 0.119093 1.158523
2009-06-29 07:23:54 51°13.663 2°55.96 22.1255 0.024199 0.119093 1.158523
2009-06-29 07:23:58 51°13.663 2°55.96 22.1266 0.024199 0.119094 1.158523
2009-06-29 07:24:04 51°13.663 2°55.96 22.1273 0.024199 0.119096 1.158523
2009-06-29 07:24:09 51°13.663 2°55.959 22.1282 0.024199 0.119096 1.158523
2009-06-29 07:24:14 51°13.663 2°55.959 22.1293 0.024199 0.119098 1.158523
2009-06-29 07:24:19 51°13.663 2°55.959 22.13 0.024199 0.119098 1.158523
2009-06-29 07:24:24 51°13.663 2°55.959 22.1307 0.024199 0.119099 1.158523
2009-06-29 07:24:29 51°13.663 2°55.959 22.1314 0.024199 0.119099 1.158523
2009-06-29 07:24:34 51°13.663 2°55.959 22.1317 0.024199 0.119101 1.158523
2009-06-29 07:24:39 51°13.663 2°55.959 22.1321 0.024199 0.119103 1.158523
2009-06-29 07:24:44 51°13.663 2°55.959 22.1333 0.024199 0.119103 1.158523
2009-06-29 07:24:49 51°13.663 2°55.959 22.1335 0.024199 0.119103 1.158523
2009-06-29 07:24:54 51°13.663 2°55.959 22.1331 0.024199 0.119104 1.158523
2009-06-29 07:24:59 51°13.663 2°55.959 22.1335 0.024199 0.119106 1.158523
2009-06-29 07:25:04 51°13.663 2°55.959 22.1339 0.024199 0.119106 1.158523
2009-06-29 07:25:09 51°13.663 2°55.959 22.135 0.024199 0.119108 1.158523
2009-06-29 07:25:14 51°13.663 2°55.959 22.1363 0.024199 0.119109 1.158523
2009-06-29 07:25:19 51°13.663 2°55.959 22.1367 0.024199 0.119109 1.158523
2009-06-29 07:25:24 51°13.663 2°55.959 22.1376 0.024199 0.119109 1.158523
2009-06-29 07:25:29 51°13.663 2°55.959 22.1391 0.024199 0.119111 1.158523
2009-06-29 07:25:34 51°13.663 2°55.959 22.1396 0.024199 0.119113 1.193347
2009-06-29 07:25:39 51°13.663 2°55.959 22.14 0.024199 0.119113 1.158523
2009-06-29 07:25:44 51°13.663 2°55.96 22.14 0.024096 0.118619 1.158523
2009-06-29 07:25:49 51°13.663 2°55.96 22.1419 0.024096 0.118619 1.158523
2009-06-29 07:25:54 51°13.664 2°55.96 22.1411 0.024199 0.119116 1.158523
2009-06-29 07:25:59 51°13.664 2°55.96 22.1414 0.024199 0.119116 1.158523
2009-06-29 07:26:04 51°13.664 2°55.96 22.1429 0.024199 0.119118 1.158523
2009-06-29 07:26:09 51°13.664 2°55.96 22.1453 0.024199 0.119119 1.158523
2009-06-29 07:26:14 51°13.664 2°55.96 22.1453 0.024199 0.119119 1.158523
2009-06-29 07:26:18 51°13.664 2°55.96 22.1473 0.024199 0.119119 1.158523
2009-06-29 07:26:24 51°13.664 2°55.961 22.1476 0.024199 0.119121 1.158523
2009-06-29 07:26:29 51°13.664 2°55.961 22.1479 0.024199 0.119123 1.158523
2009-06-29 07:26:34 51°13.664 2°55.961 22.1489 0.024199 0.119124 1.158523
2009-06-29 07:26:38 51°13.664 2°55.961 22.15 0.024199 0.119126 1.158523
2009-06-29 07:26:44 51°13.664 2°55.961 22.1519 0.024199 0.119126 1.158523
2009-06-29 07:26:49 51°13.664 2°55.961 22.1534 0.024199 0.119126 1.158523
2009-06-29 07:26:54 51°13.664 2°55.961 22.1542 0.024199 0.119128 1.158523
2009-06-29 07:26:59 51°13.664 2°55.961 22.1547 0.024199 0.119129 1.158523
2009-06-29 07:27:04 51°13.664 2°55.961 22.1554 0.024199 0.119131 1.158523
2009-06-29 07:27:09 51°13.663 2°55.961 22.1559 0.024199 0.119131 1.158523
2009-06-29 07:27:14 51°13.663 2°55.96 22.1562 0.024199 0.119133 1.158523
2009-06-29 07:27:18 51°13.663 2°55.961 22.1576 0.024199 0.119133 1.158523
2009-06-29 07:27:24 51°13.663 2°55.961 22.1582 0.024199 0.119134 1.158523
2009-06-29 07:27:29 51°13.663 2°55.961 22.1599 0.024199 0.119136 1.158523
2009-06-29 07:27:34 51°13.663 2°55.96 22.1606 0.024199 0.119138 1.158523
2009-06-29 07:27:39 51°13.663 2°55.96 22.1619 0.024199 0.119139 1.158523
2009-06-29 07:27:44 51°13.663 2°55.96 22.1627 0.024199 0.119139 1.158523
2009-06-29 07:27:49 51°13.663 2°55.96 22.1633 0.024199 0.119139 1.158523
2009-06-29 07:27:54 51°13.663 2°55.96 22.1642 0.024199 0.119141 1.158523
2009-06-29 07:27:59 51°13.663 2°55.96 22.1653 0.024199 0.119143 1.158523
2009-06-29 07:28:04 51°13.663 2°55.96 22.1652 0.024199 0.119143 1.158523
2009-06-29 07:28:10 51°13.663 2°55.96 22.166 0.024199 0.119146 1.158523
2009-06-29 07:28:14 51°13.663 2°55.96 22.1672 0.024199 0.119146 1.158523
2009-06-29 07:28:18 51°13.662 2°55.96 22.169 0.024199 0.119146 1.158523
2009-06-29 07:28:25 51°13.662 2°55.96 22.1695 0.024199 0.119146 1.158523
2009-06-29 07:28:29 51°13.662 2°55.96 22.17 0.024199 0.119147 1.158523
2009-06-29 07:28:34 51°13.662 2°55.96 22.1709 0.024199 0.119149 1.158523
2009-06-29 07:28:38 51°13.662 2°55.96 22.1718 0.024199 0.119151 1.158523
2009-06-29 07:28:45 51°13.662 2°55.96 22.1723 0.024199 0.119152 1.158523
2009-06-29 07:28:50 51°13.662 2°55.96 22.1731 0.024199 0.119152 1.158523
2009-06-29 07:28:54 51°13.662 2°55.96 22.1737 0.024199 0.119152 1.158523
2009-06-29 07:28:58 51°13.662 2°55.96 22.1741 0.024199 0.119154 1.158523
2009-06-29 07:29:04 51°13.662 2°55.96 22.1745 0.024199 0.119154 1.158523
2009-06-29 07:29:10 51°13.662 2°55.96 22.1747 0.024199 0.119157 1.158523
2009-06-29 07:29:15 51°13.662 2°55.96 22.175 0.024199 0.119157 1.158523
2009-06-29 07:29:19 51°13.663 2°55.96 22.1739 0.024199 0.119157 1.158523
2009-06-29 07:29:25 51°13.663 2°55.96 22.1744 0.024199 0.119159 1.158523
2009-06-29 07:29:29 51°13.663 2°55.96 22.1758 0.024302 0.119655 1.158523
2009-06-29 07:29:35 51°13.663 2°55.959 22.1782 0.024199 0.119161 1.158523
2009-06-29 07:29:39 51°13.663 2°55.959 22.1799 0.024199 0.119161 1.158523
2009-06-29 07:29:44 51°13.663 2°55.959 22.1808 0.024199 0.119162 1.158523
2009-06-29 07:29:50 51°13.663 2°55.959 22.1806 0.024199 0.119162 1.158523
2009-06-29 07:29:55 51°13.663 2°55.959 22.1804 0.024199 0.119164 1.158523
2009-06-29 07:29:59 51°13.663 2°55.959 22.1813 0.024199 0.119166 1.158523
2009-06-29 07:30:04 51°13.663 2°55.959 22.1808 0.024199 0.119167 1.158523
2009-06-29 07:30:09 51°13.663 2°55.959 22.1811 0.024199 0.119167 1.158523
2009-06-29 07:30:14 51°13.663 2°55.959 22.1848 0.024199 0.119169 1.158523
2009-06-29 07:30:19 51°13.663 2°55.959 22.1845 0.024199 0.119169 1.158523
2009-06-29 07:30:23 51°13.663 2°55.959 22.1859 0.024199 0.119169 1.158523
2009-06-29 07:30:29 51°13.663 2°55.959 22.1873 0.024199 0.119171 1.158523
2009-06-29 07:30:34 51°13.663 2°55.959 22.1886 0.024199 0.119172 1.158523
2009-06-29 07:30:39 51°13.663 2°55.959 22.1892 0.024199 0.119172 1.158523
2009-06-29 07:30:44 51°13.662 2°55.959 22.1888 0.024199 0.119174 1.158523
2009-06-29 07:30:49 51°13.662 2°55.959 22.1902 0.024199 0.119174 1.158523
2009-06-29 07:30:54 51°13.662 2°55.959 22.1891 0.024199 0.119176 1.158523
2009-06-29 07:30:59 51°13.662 2°55.959 22.1908 0.024199 0.119177 1.158523
2009-06-29 07:31:04 51°13.662 2°55.959 22.191 0.024199 0.119177 1.158523
2009-06-29 07:31:09 51°13.662 2°55.959 22.1908 0.024199 0.119177 1.123699
2009-06-29 07:31:14 51°13.662 2°55.959 22.1918 0.024199 0.119179 1.158523
2009-06-29 07:31:19 51°13.662 2°55.959 22.1931 0.024199 0.119179 1.158523
2009-06-29 07:31:24 51°13.662 2°55.959 22.1943 0.024199 0.119181 1.158523
2009-06-29 07:31:29 51°13.663 2°55.959 22.1956 0.024199 0.119181 1.158523
2009-06-29 07:31:34 51°13.663 2°55.959 22.1964 0.024199 0.119184 1.158523
2009-06-29 07:31:39 51°13.663 2°55.959 22.1966 0.024199 0.119184 1.158523
2009-06-29 07:31:44 51°13.663 2°55.959 22.1977 0.024199 0.119186 1.158523
2009-06-29 07:31:49 51°13.663 2°55.959 22.1986 0.024199 0.119186 1.158523
2009-06-29 07:31:54 51°13.662 2°55.959 22.1996 0.024199 0.119187 1.158523
2009-06-29 07:31:59 51°13.662 2°55.959 22.1997 0.024199 0.119187 1.158523
2009-06-29 07:32:04 51°13.662 2°55.959 22.2001 0.024199 0.119189 1.158523
2009-06-29 07:32:09 51°13.662 2°55.959 22.2008 0.024199 0.119189 1.158523
2009-06-29 07:32:14 51°13.662 2°55.959 22.2034 0.024199 0.119192 1.158523
2009-06-29 07:32:19 51°13.662 2°55.959 22.2052 0.024199 0.119192 1.158523
2009-06-29 07:32:24 51°13.662 2°55.959 22.2065 0.024199 0.119192 1.158523
2009-06-29 07:32:29 51°13.662 2°55.959 22.2072 0.024199 0.119194 1.158523
2009-06-29 07:32:34 51°13.662 2°55.959 22.208 0.024199 0.119194 1.158523
2009-06-29 07:32:39 51°13.662 2°55.959 22.2085 0.024199 0.119196 1.158523
2009-06-29 07:32:44 51°13.662 2°55.959 22.2094 0.024199 0.119197 1.158523
2009-06-29 07:32:49 51°13.662 2°55.959 22.2098 0.024199 0.119197 1.158523
2009-06-29 07:32:54 51°13.662 2°55.959 22.2107 0.024199 0.119199 1.123699
2009-06-29 07:32:59 51°13.662 2°55.959 22.2108 0.024199 0.119199 1.158523
2009-06-29 07:33:04 51°13.661 2°55.959 22.2116 0.024199 0.119201 1.158523
2009-06-29 07:33:09 51°13.662 2°55.959 22.2118 0.024199 0.119201 1.158523
2009-06-29 07:33:14 51°13.661 2°55.959 22.2121 0.024199 0.119204 1.158523
2009-06-29 07:33:19 51°13.661 2°55.959 22.2126 0.024199 0.119204 1.158523
2009-06-29 07:33:24 51°13.661 2°55.959 22.2142 0.024199 0.119204 1.123699
2009-06-29 07:33:30 51°13.661 2°55.959 22.2157 0.024199 0.119206 1.158523
2009-06-29 07:33:34 51°13.661 2°55.959 22.2169 0.024199 0.119206 1.158523
2009-06-29 07:33:39 51°13.661 2°55.959 22.2177 0.024199 0.119207 1.158523
2009-06-29 07:33:44 51°13.661 2°55.959 22.2187 0.024199 0.119209 1.123699
2009-06-29 07:33:49 51°13.661 2°55.959 22.2187 0.024199 0.119209 1.123699
2009-06-29 07:33:54 51°13.661 2°55.959 22.2186 0.024199 0.119209 1.158523
2009-06-29 07:33:59 51°13.661 2°55.959 22.2187 0.024199 0.119209 1.123699
2009-06-29 07:34:03 51°13.661 2°55.959 22.2198 0.024199 0.11921 1.158523
2009-06-29 07:34:09 51°13.661 2°55.959 22.2207 0.024199 0.119212 1.123699
2009-06-29 07:34:14 51°13.661 2°55.959 22.2223 0.024199 0.119214 1.158523
2009-06-29 07:34:19 51°13.661 2°55.959 22.2234 0.024199 0.119214 1.158523
2009-06-29 07:34:24 51°13.661 2°55.959 22.2245 0.024199 0.119215 1.158523
2009-06-29 07:34:29 51°13.661 2°55.959 22.2252 0.024199 0.119215 1.158523
2009-06-29 07:34:34 51°13.661 2°55.96 22.226 0.024199 0.119217 1.123699
2009-06-29 07:34:39 51°13.661 2°55.959 22.2271 0.024199 0.119217 1.123699
2009-06-29 07:34:44 51°13.661 2°55.959 22.2281 0.024199 0.11922 1.158523
2009-06-29 07:34:49 51°13.661 2°55.959 22.2296 0.024199 0.11922 1.158523
2009-06-29 07:34:54 51°13.661 2°55.959 22.2295 0.024199 0.11922 1.158523
2009-06-29 07:34:59 51°13.661 2°55.959 22.2302 0.024199 0.119222 1.158523
2009-06-29 07:35:04 51°13.661 2°55.96 22.2306 0.024199 0.119222 1.158523
2009-06-29 07:35:09 51°13.661 2°55.96 22.2316 0.024199 0.119224 1.158523
2009-06-29 07:35:14 51°13.661 2°55.96 22.2332 0.024199 0.119225 1.123699
2009-06-29 07:35:19 51°13.661 2°55.96 22.2357 0.024199 0.119225 1.123699
2009-06-29 07:35:24 51°13.661 2°55.96 22.2376 0.024199 0.119227 1.158523
2009-06-29 07:35:29 51°13.662 2°55.96 22.2381 0.024199 0.119227 1.158523
2009-06-29 07:35:34 51°13.662 2°55.96 22.243 0.024199 0.119229 1.123699
2009-06-29 07:35:39 51°13.662 2°55.96 22.2443 0.024199 0.119229 1.158523
2009-06-29 07:35:44 51°13.662 2°55.96 22.2449 0.024199 0.11923 1.158523
2009-06-29 07:35:49 51°13.662 2°55.96 22.2511 0.024199 0.11923 1.158523
2009-06-29 07:35:54 51°13.661 2°55.96 22.2448 0.024199 0.119232 1.158523
2009-06-29 07:35:59 51°13.661 2°55.96 22.246 0.024199 0.119234 1.123699
2009-06-29 07:36:04 51°13.661 2°55.96 22.2452 0.024199 0.119235 1.158523
2009-06-29 07:36:09 51°13.661 2°55.96 22.2458 0.024199 0.119235 1.123699
2009-06-29 07:36:14 51°13.661 2°55.96 22.2448 0.024199 0.119237 1.123699
2009-06-29 07:36:19 51°13.662 2°55.96 22.245 0.024199 0.119237 1.123699
2009-06-29 07:36:24 51°13.662 2°55.96 22.2437 0.024199 0.119239 1.123699
2009-06-29 07:36:29 51°13.662 2°55.96 22.2446 0.024199 0.119239 1.123699
2009-06-29 07:36:34 51°13.662 2°55.96 22.2454 0.024199 0.11924 1.123699
2009-06-29 07:36:39 51°13.662 2°55.96 22.2481 0.024199 0.119242 1.158523
2009-06-29 07:36:44 51°13.662 2°55.96 22.2502 0.024199 0.119242 1.123699
2009-06-29 07:36:49 51°13.661 2°55.96 22.2516 0.024199 0.119242 1.123699
2009-06-29 07:36:54 51°13.661 2°55.96 22.2528 0.024199 0.119244 1.123699
2009-06-29 07:36:59 51°13.662 2°55.959 22.2535 0.024199 0.119245 1.123699
2009-06-29 07:37:04 51°13.662 2°55.959 22.2547 0.024096 0.11875 1.123699
2009-06-29 07:37:09 51°13.662 2°55.959 22.2538 0.024199 0.119247 1.123699
2009-06-29 07:37:14 51°13.662 2°55.959 22.2527 0.024199 0.119247 1.123699
2009-06-29 07:37:19 51°13.662 2°55.959 22.2499 0.024199 0.119247 1.123699
2009-06-29 07:37:23 51°13.662 2°55.959 22.252 0.024199 0.119249 1.158523
2009-06-29 07:37:29 51°13.662 2°55.959 22.2592 0.024199 0.11925 1.123699
2009-06-29 07:37:34 51°13.662 2°55.959 22.2587 0.024199 0.11925 1.123699
2009-06-29 07:37:39 51°13.662 2°55.959 22.2598 0.024199 0.119252 1.123699
2009-06-29 07:37:44 51°13.662 2°55.959 22.2571 0.024199 0.119252 1.123699
2009-06-29 07:37:49 51°13.662 2°55.96 22.262 0.024199 0.119252 1.123699
2009-06-29 07:37:54 51°13.662 2°55.96 22.2606 0.024199 0.119254 1.123699
2009-06-29 07:37:59 51°13.662 2°55.96 22.2616 0.024199 0.119255 1.123699
2009-06-29 07:38:04 51°13.662 2°55.96 22.262 0.024199 0.119257 1.123699
2009-06-29 07:38:09 51°13.662 2°55.96 22.2629 0.024199 0.119259 1.123699
2009-06-29 07:38:14 51°13.662 2°55.96 22.2625 0.024199 0.119259 1.123699
2009-06-29 07:38:19 51°13.662 2°55.96 22.2631 0.024199 0.119259 1.123699
2009-06-29 07:38:24 51°13.662 2°55.96 22.2627 0.024199 0.11926 1.123699
2009-06-29 07:38:29 51°13.662 2°55.961 22.2638 0.024199 0.119262 1.123699
2009-06-29 07:38:34 51°13.662 2°55.961 22.2643 0.024199 0.119262 1.123699
2009-06-29 07:38:39 51°13.662 2°55.961 22.2659 0.024199 0.119264 1.123699
2009-06-29 07:38:44 51°13.661 2°55.961 22.2662 0.024199 0.119265 1.123699
2009-06-29 07:38:49 51°13.661 2°55.961 22.2663 0.024199 0.119265 1.123699
2009-06-29 07:38:54 51°13.661 2°55.961 22.2667 0.024199 0.119265 1.123699
2009-06-29 07:38:59 51°13.662 2°55.961 22.2685 0.024199 0.119267 1.158523
2009-06-29 07:39:04 51°13.662 2°55.961 22.2693 0.024199 0.119269 1.123699
2009-06-29 07:39:09 51°13.662 2°55.961 22.2701 0.024199 0.119269 1.123699
2009-06-29 07:39:15 51°13.662 2°55.961 22.2712 0.024199 0.11927 1.123699
2009-06-29 07:39:19 51°13.662 2°55.961 22.2721 0.024199 0.11927 1.123699
2009-06-29 07:39:24 51°13.662 2°55.961 22.2706 0.024199 0.119272 1.123699
2009-06-29 07:39:29 51°13.662 2°55.961 22.2736 0.024199 0.119274 1.123699
2009-06-29 07:39:34 51°13.662 2°55.961 22.2734 0.024199 0.119274 1.123699
2009-06-29 07:39:39 51°13.662 2°55.961 22.274 0.024199 0.119275 1.123699
2009-06-29 07:39:44 51°13.661 2°55.961 22.2739 0.024199 0.119277 1.123699
2009-06-29 07:39:49 51°13.662 2°55.961 22.2766 0.024199 0.119277 1.123699
2009-06-29 07:39:54 51°13.662 2°55.961 22.278 0.024199 0.119277 1.123699
2009-06-29 07:39:59 51°13.662 2°55.961 22.2779 0.024199 0.119279 1.123699
2009-06-29 07:40:03 51°13.662 2°55.961 22.2757 0.024199 0.119279 1.123699
2009-06-29 07:40:09 51°13.662 2°55.961 22.2775 0.024199 0.11928 1.158523
2009-06-29 07:40:14 51°13.662 2°55.961 22.2776 0.024096 0.118786 1.123699
2009-06-29 07:40:19 51°13.662 2°55.961 22.2744 0.024096 0.118786 1.123699
2009-06-29 07:40:24 51°13.662 2°55.961 22.2757 0.024199 0.119284 1.123699
2009-06-29 07:40:29 51°13.662 2°55.961 22.2773 0.024199 0.119284 1.123699
2009-06-29 07:40:34 51°13.662 2°55.961 22.2791 0.024199 0.119285 1.123699
2009-06-29 07:40:39 51°13.662 2°55.961 22.2805 0.024199 0.119287 1.123699
2009-06-29 07:40:44 51°13.663 2°55.96 22.2822 0.024199 0.119287 1.123699
2009-06-29 07:40:49 51°13.664 2°55.96 22.2823 0.024199 0.119287 1.123699
2009-06-29 07:40:54 51°13.662 2°55.961 22.284 0.024199 0.119289 1.123699
2009-06-29 07:40:59 51°13.66 2°55.962 22.2845 0.024199 0.11929 1.123699
2009-06-29 07:41:04 51°13.66 2°55.962 22.288 0.024199 0.119292 1.123699
2009-06-29 07:41:09 51°13.66 2°55.962 22.2877 0.024199 0.119292 1.123699
2009-06-29 07:41:14 51°13.66 2°55.962 22.2894 0.024199 0.119294 1.123699
2009-06-29 07:41:19 51°13.66 2°55.962 22.2903 0.024199 0.119294 1.123699
2009-06-29 07:41:24 51°13.66 2°55.962 22.2921 0.024199 0.119295 1.123699
2009-06-29 07:41:29 51°13.66 2°55.961 22.293 0.024199 0.119295 1.123699
2009-06-29 07:41:34 51°13.661 2°55.961 22.294 0.024199 0.119297 1.123699
2009-06-29 07:41:39 51°13.661 2°55.961 22.2955 0.024199 0.119299 1.123699
2009-06-29 07:41:44 51°13.661 2°55.961 22.296 0.024199 0.119299 1.123699
2009-06-29 07:41:49 51°13.661 2°55.961 22.297 0.024199 0.119299 1.123699
2009-06-29 07:41:54 51°13.661 2°55.961 22.2973 0.024199 0.1193 1.123699
2009-06-29 07:41:59 51°13.661 2°55.961 22.2975 0.024199 0.119302 1.123699
2009-06-29 07:42:03 51°13.661 2°55.961 22.2985 0.024199 0.119302 1.123699
2009-06-29 07:42:09 51°13.661 2°55.961 22.2989 0.024199 0.119304 1.123699
2009-06-29 07:42:14 51°13.661 2°55.961 22.2987 0.024199 0.119304 1.123699
2009-06-29 07:42:19 51°13.662 2°55.961 22.2991 0.024199 0.119304 1.123699
2009-06-29 07:42:24 51°13.662 2°55.96 22.3002 0.024199 0.119305 1.123699
2009-06-29 07:42:29 51°13.663 2°55.96 22.3036 0.024199 0.119307 1.123699